[{"header": {"dx": 0.06612293990616946, "dy": 0.0552356325346848, "nx": 98, "ny": 59, "la1": 35.046912555036876, "la2": 31.78801023549047, "lo1": -121.43107172385933, "lo2": -114.95102361305473, "refTime": "2026041720", "parameterCategory": 1, "parameterNumber": 2}, "data": [3.84, 4.11, 4.65, 4.65, 5.08, 5.08, 5.08, 5.31, 5.31, 5.09, 5.24, 5.24, 7.6, 8.05, 8.45, 7.85, 6.6, 5.95, 6.08, 6.08, 6.8, 7.47, 6.16, 7.08, 5.81, 2.84, -1.6, -3.72, -3.48, -3.48, -2.2, -2.2, -1.19, -1.19, 0.0, 0.0, 0.0, 0.0, 0.96, 2.0, 0.0, -4.02, -6.07, -6.94, -7.45, -6.64, -6.71, -6.71, -6.71, -6.17, -5.4, -5.4, -4.98, -4.98, -4.8, -3.93, -3.16, -3.72, -2.84, -2.53, -3.2, -2.84, -1.27, -2.2, -2.16, -1.98, -2.12, -1.84, -1.96, -2.82, -1.96, -1.84, -1.84, -0.95, -0.95, 0.0, 0.0, 0.79, 0.89, 0.85, 1.75, 3.49, 4.2, 5.21, 6.32, 6.7, 7.6, 7.53, 7.37, 7.37, 6.36, 4.77, 3.58, 2.24, -1.6, -1.05, -2.12, -1.84, 3.84, 3.83, 4.11, 4.65, 4.93, 5.08, 5.08, 5.31, 5.09, 4.8, 4.44, 6.71, 7.15, 7.55, 8.85, 8.06, 6.57, 7.28, 6.44, 5.58, 6.9, 7.2, 7.06, 7.45, 5.73, 4.34, 0.0, -2.23, -2.48, -2.4, -1.99, -2.16, -1.98, -1.84, -2.12, -3.0, -3.91, -3.93, -3.82, -3.58, -5.2, -6.94, -7.45, -6.45, -7.1, -7.15, -6.71, -6.71, -6.17, -5.73, -5.4, -5.7, -5.26, -4.15, -3.6, -3.72, -3.72, -3.35, -3.6, -3.2, -3.2, -2.53, -2.23, -2.2, -2.16, -2.8, -2.8, -3.0, -2.64, -2.82, -2.82, -1.84, -1.03, -1.03, -0.95, 0.0, 0.0, 0.79, 0.89, 0.85, 1.75, 3.49, 4.2, 5.21, 6.32, 6.7, 7.6, 7.53, 7.37, 7.37, 6.36, 4.77, 3.58, 2.24, -1.6, -1.05, -2.12, -1.84, 3.84, 3.83, 4.11, 4.65, 4.65, 4.93, 5.08, 4.9, 4.6, 4.34, 3.98, 4.47, 7.1, 7.37, 7.21, 7.37, 7.12, 6.99, 6.32, 7.28, 5.95, 7.47, 6.8, 6.8, 6.8, 4.92, 1.41, 0.0, -1.05, -1.03, -1.84, -1.96, -2.82, -2.99, -3.55, -6.79, -7.54, -7.1, -6.45, -6.57, -6.4, -6.28, -6.88, -7.08, -7.08, -6.71, -6.71, -6.26, -6.17, -5.73, -5.73, -5.7, -5.26, -4.4, -3.35, -3.35, -3.35, -3.82, -3.82, -3.35, -3.35, -2.48, -2.0, -1.99, -2.99, -3.22, -2.8, -2.8, -3.0, -3.72, -2.8, -1.98, -0.96, -0.96, 0.0, 0.0, 0.0, 0.0, 0.8, 0.89, 1.68, 2.7, 3.49, 4.56, 5.21, 6.06, 6.44, 7.53, 7.63, 7.53, 6.88, 5.73, 4.24, 2.21, -2.21, -2.2, -1.98, -1.96, 3.47, 3.83, 4.11, 4.07, 4.29, 4.55, 4.55, 4.4, 4.19, 3.98, 3.98, 4.02, 7.1, 7.21, 7.63, 7.53, 7.12, 6.99, 5.95, 5.95, 5.95, 6.8, 6.8, 6.45, 6.57, 6.71, 3.16, 0.0, 0.0, 0.0, 0.0, 0.0, 0.0, 0.0, -1.98, -6.26, -7.45, -7.89, -6.57, -6.57, -6.57, -6.88, -6.45, -6.64, -6.71, -6.71, -6.71, -6.26, -6.17, -5.73, -5.29, -4.98, -4.8, -4.4, -3.72, -3.72, -3.35, -3.72, -3.72, -3.72, -3.48, -2.2, -1.99, -2.16, -3.22, -3.91, -4.19, -4.01, -4.01, -3.47, -3.0, -1.98, -0.96, 0.0, 0.0, 0.0, 0.0, 0.0, 0.89, 0.93, 1.47, 2.59, 3.49, 3.49, 4.34, 4.5, 5.69, 6.55, 6.82, 7.2, 6.57, 5.94, 4.47, 2.53, 2.68, -2.73, -2.8, -2.82, 3.47, 3.83, 4.11, 3.79, 4.07, 3.73, 4.0, 3.88, 4.11, 3.98, 3.98, 3.98, 6.71, 7.81, 8.29, 7.63, 6.4, 5.95, 5.58, 5.24, 6.08, 6.8, 6.4, 6.8, 6.45, 6.51, 4.4, 0.0, 0.0, 1.99, 4.09, 4.47, 4.82, 4.77, 3.48, -2.4, -5.58, -7.45, -6.64, -6.64, -6.71, -6.71, -6.71, -6.71, -6.71, -6.71, -6.26, -6.17, -5.73, -5.51, -5.4, -4.29, -4.29, -3.93, -4.4, -4.4, -3.72, -4.09, -4.4, -3.48, -3.22, -2.76, -2.16, -3.22, -3.91, -4.19, -3.72, -3.97, -3.97, -2.82, -2.82, -1.84, -0.82, 0.0, 0.89, 1.52, 0.94, 0.0, 0.0, 1.6, 1.54, 2.59, 2.59, 2.7, 3.63, 3.45, 4.5, 4.94, 5.69, 5.84, 5.58, 4.98, 4.02, 2.53, 2.24, -2.48, -3.22, -2.82, 3.47, 3.49, 3.49, 3.49, 3.48, 3.43, 3.43, 3.35, 3.6, 3.39, 3.98, 4.43, 6.71, 7.98, 8.43, 7.12, 5.95, 5.24, 3.91, 4.89, 5.24, 4.89, 6.08, 6.08, 5.95, 5.21, 3.79, -0.0, 4.47, 4.47, 2.84, 2.95, 3.22, 1.08, -1.08, -3.93, -5.7, -6.26, -6.26, -6.17, -6.17, -7.45, -6.45, -7.08, -6.64, -6.64, -5.94, -5.94, -4.98, -4.98, -4.98, -4.11, -4.29, -4.29, -4.8, -4.4, -4.4, -4.4, -4.29, -4.29, -3.22, -2.99, -2.8, -3.0, -3.72, -3.97, -3.97, -3.55, -2.67, -2.83, -2.83, -1.84, -0.94, 0.0, 0.0, 1.84, 1.84, 0.94, 0.0, 0.93, 2.59, 2.59, 2.59, 2.59, 2.7, 3.49, 3.32, 3.8, 2.82, 3.91, 4.29, 4.47, 3.72, 3.72, 2.68, -1.41, -3.22, -3.2, 3.47, 3.49, 3.49, 3.2, 2.86, 3.16, 2.84, 2.79, 3.2, 3.39, 3.87, 4.34, 7.15, 7.1, 7.45, 4.89, 3.91, 3.22, 3.22, 3.63, 4.54, 4.89, 4.43, 4.19, 4.29, 2.12, -0.0, -0.0, -0.0, -0.0, -0.0, -0.0, -0.0, -2.0, -3.48, -4.22, -5.36, -7.15, -6.94, -5.26, -5.94, -6.51, -6.8, -7.06, -7.47, -6.0, -6.0, -5.37, -4.98, -4.74, -4.74, -4.11, -4.29, -4.98, -5.26, -5.26, -4.77, -4.4, -4.8, -4.29, -3.49, -2.99, -3.0, -3.72, -3.97, -3.97, -3.77, -2.67, -1.95, -1.75, -1.75, -1.75, -0.8, 0.0, 0.0, 0.94, 0.89, 0.89, 0.85, 0.85, 2.59, 3.51, 2.59, 2.59, 2.59, 3.21, 3.32, 1.84, 1.05, 2.21, 2.98, 3.48, 4.43, 4.98, 3.58, -1.41, -3.22, -3.0, 3.22, 3.08, 2.86, 2.86, 2.86, 2.51, 2.53, 2.79, 3.07, 3.2, 3.7, 4.11, 6.17, 5.24, 4.74, 1.7, 1.84, 1.98, 2.6, 3.22, 3.22, 2.68, 1.99, 1.98, 2.12, 1.63, -0.0, 1.63, -0.0, -1.98, -3.2, -1.58, -1.49, -3.72, -4.6, -4.6, -5.26, -5.81, -7.15, -6.26, -5.81, -6.26, -6.51, -6.8, -6.8, -6.44, -5.49, -5.58, -4.89, -4.74, -4.65, -4.98, -5.4, -5.7, -5.7, -5.26, -5.26, -4.77, -4.4, -4.29, -3.22, -2.99, -3.22, -3.72, -3.72, -3.55, -2.99, -1.84, -0.94, -1.84, -1.84, -1.0, -0.89, 0.0, 0.0, 0.0, 0.0, 0.85, 0.89, 0.85, 2.17, 3.61, 3.7, 3.06, 3.06, 3.7, 3.8, 2.8, 2.68, -0.0, 1.7, 3.63, 6.0, 6.17, 3.82, -1.08, -3.22, -3.0, 2.8, 2.84, 2.86, 2.22, 2.23, 2.23, 2.53, 2.21, 3.07, 3.6, 3.6, 3.6, 5.51, 3.76, 2.12, -0.0, -0.0, -0.0, 0.95, 1.1, -0.0, -0.0, -0.0, -0.0, -0.0, -0.0, -0.0, 1.4, -0.0, -3.72, -4.56, -3.15, -1.47, -1.58, -4.29, -5.4, -6.4, -6.51, -6.71, -6.71, -6.26, -6.26, -5.94, -6.0, -6.08, -4.74, -6.44, -6.44, -5.15, -4.89, -5.72, -4.98, -5.94, -5.94, -6.17, -5.73, -5.73, -4.82, -4.4, -3.48, -3.22, -2.99, -2.99, -3.22, -2.8, -2.64, -2.82, -1.84, -1.03, -1.98, -1.98, -0.89, 0.0, -0.83, -0.79, 0.0, 0.0, 0.89, 0.85, 0.74, 1.68, 3.88, 4.6, 4.37, 4.12, 4.71, 5.59, 5.37, 3.35, 1.7, 3.35, 5.09, 5.81, 6.26, 3.72, -1.08, -3.22, -3.0, 2.8, 2.84, 2.44, 2.22, 1.8, 1.84, 1.61, 2.21, 2.79, 3.35, 3.35, 3.35, 2.68, 2.63, 2.6, -0.0, -1.03, -0.0, -0.0, -0.0, -0.0, -0.0, -0.0, -0.0, -0.0, -0.0, -0.0, -0.0, -0.0, -3.0, -3.2, -0.0, -0.0, -0.0, -3.2, -6.4, -6.4, -5.4, -6.51, -6.71, -5.36, -5.26, -4.6, -4.98, -4.89, -5.58, -5.95, -6.6, -6.18, -5.95, -5.58, -5.58, -6.4, -6.57, -6.57, -6.45, -5.94, -5.4, -4.8, -3.79, -3.22, -3.22, -3.72, -2.99, -1.98, -2.8, -2.8, -1.7, -0.88, -1.19, -1.19, -0.96, -0.96, -0.82, -0.83, 0.0, 0.0, 0.89, 0.81, 0.0, 0.78, 2.28, 4.83, 5.49, 5.59, 5.69, 7.07, 6.7, 5.29, 4.6, 5.09, 5.81, 6.71, 6.71, 4.24, -1.41, -2.99, -3.0, 2.8, 2.61, 2.2, 2.22, 1.8, 1.6, 1.84, 2.23, 2.84, 2.84, 3.09, 3.35, 3.2, 2.63, 2.84, -0.0, -1.08, -0.0, 0.63, 0.63, -0.0, -0.0, -0.0, -0.0, -1.4, -1.4, -1.63, -0.0, -0.0, -0.0, -0.0, 2.12, 2.98, -0.0, -2.82, -6.08, -6.4, -6.94, -5.81, -5.81, -4.98, -4.29, -4.65, -5.58, -6.0, -5.58, -6.21, -6.18, -6.55, -6.55, -6.55, -6.55, -6.11, -6.11, -6.55, -7.2, -6.99, -5.6, -4.98, -3.79, -3.49, -2.99, -2.99, -1.98, -1.98, -2.99, -3.49, -2.4, -1.19, -1.41, -1.41, -1.27, -0.98, -0.81, -0.89, 0.0, 0.79, 0.94, 0.89, 0.0, 0.0, 1.54, 2.97, 5.13, 6.01, 6.39, 7.28, 7.71, 6.71, 6.26, 6.26, 6.71, 6.71, 7.15, 5.36, 0.0, -3.22, -2.8, 3.0, 2.82, 2.2, 1.76, 1.58, 1.6, 1.84, 2.23, 2.84, 2.84, 2.84, 2.84, 2.79, 2.49, 1.79, 1.2, 0.45, 0.45, 0.63, 0.8, 1.2, 1.2, 0.95, -0.0, -1.52, -1.52, -1.84, -0.0, 1.19, 1.98, 4.74, 5.69, 6.64, 2.67, -0.89, -3.91, -4.6, -5.26, -5.36, -4.98, -4.65, -4.29, -4.29, -5.09, -5.36, -3.82, -5.51, -5.95, -5.69, -6.98, -6.45, -6.45, -6.11, -5.69, -6.18, -6.8, -7.12, -6.16, -4.98, -4.11, -4.11, -3.22, -1.98, -1.84, -2.12, -3.0, -3.91, -2.16, -1.05, -1.05, -2.0, -1.8, -0.98, -1.05, 0.0, 0.0, 0.94, 0.94, 0.76, 0.0, 0.0, 0.89, 2.71, 4.4, 5.49, 6.32, 7.44, 7.47, 7.42, 6.66, 6.71, 6.71, 6.71, 7.54, 7.08, 3.58, -1.41, -1.98, 2.77, 2.36, 2.2, 1.76, 1.58, 1.8, 1.8, 2.23, 2.86, 2.86, 2.58, 2.84, 2.79, 2.15, 1.86, 1.2, 1.2, 0.6, 0.6, 0.95, 1.2, 0.8, 0.89, 0.32, -0.0, -0.4, -0.63, -0.0, 0.6, 1.26, 4.11, 6.11, 6.01, 4.26, 0.89, -0.0, -0.98, -3.2, -3.58, -3.82, -3.72, -3.82, -3.58, -2.8, -0.0, -0.0, -0.0, -0.0, 4.02, -4.4, -3.35, -3.6, -3.39, -3.13, -4.47, -3.48, -5.81, -7.37, -4.98, -3.79, -2.99, -2.8, -1.84, -0.95, -1.96, -3.77, -3.55, -2.82, -2.12, -1.98, -2.16, -2.16, -1.14, 0.0, 0.0, 0.0, 0.94, 0.89, 0.74, 0.79, 0.76, 0.93, 1.54, 2.59, 4.4, 6.04, 6.32, 6.44, 6.94, 6.79, 6.98, 7.11, 7.15, 7.6, 7.6, 5.81, 1.6, -1.14, 2.96, 2.32, 2.18, 1.73, 1.76, 1.76, 1.58, 2.22, 2.6, 2.86, 2.48, 2.23, 2.23, 2.21, 1.58, 0.99, 0.99, 0.99, 0.8, 0.6, 0.6, 0.6, 0.0, 0.0, 0.0, -0.45, -0.45, 0.0, -0.0, 1.26, 1.6, 3.77, 4.0, 3.4, 2.67, 2.82, 2.95, 2.21, 2.24, -2.68, -1.9, -2.21, -0.0, -0.0, -0.0, -0.0, 0.96, 3.2, 3.72, 3.47, 3.47, 1.84, 1.52, 1.73, 1.84, 2.8, -0.0, -5.81, -6.8, -3.22, -2.16, -1.49, -1.58, -1.58, -1.03, -1.84, -2.4, -1.84, -1.73, -1.98, -1.03, -1.03, 0.0, 0.0, 0.0, 0.0, 0.0, 0.0, 0.0, 0.94, 0.89, 1.84, 1.52, 2.23, 3.88, 4.4, 5.36, 5.24, 5.43, 6.4, 6.79, 6.98, 6.98, 7.54, 7.11, 7.6, 4.82, 0.0, 2.92, 2.32, 2.36, 1.73, 1.73, 1.57, 1.76, 2.44, 2.86, 2.6, 2.22, 2.23, 1.98, 1.61, 1.61, 1.24, 1.24, 0.57, 0.57, 0.6, 0.6, 0.0, 0.0, 0.0, -0.63, -0.45, -0.45, -0.4, -0.0, -0.0, 0.54, 1.14, 2.58, 1.4, 1.26, 3.87, 5.31, 3.72, -0.0, -0.0, -0.0, -0.0, -0.0, -0.0, -0.0, -0.0, -0.0, 1.63, 1.73, 3.2, 3.2, 1.63, 1.73, 1.73, 1.63, 4.29, 3.2, -2.98, -5.2, -3.2, -0.96, -1.63, 0.0, 0.0, 4.02, 4.92, 5.36, 5.36, 3.48, 0.0, 0.0, 0.0, 0.0, 0.0, -0.89, -0.89, 0.0, 0.0, 0.0, 0.89, 1.73, 1.84, 2.4, 2.31, 3.8, 4.56, 3.45, 3.6, 3.9, 5.49, 6.6, 6.4, 6.0, 6.28, 6.94, 7.08, 3.22, 3.22, 2.73, 2.29, 2.16, 1.7, 1.73, 1.73, 2.2, 2.44, 2.86, 2.86, 2.22, 2.23, 2.23, 1.84, 1.61, 1.2, 1.0, 0.71, 0.57, 0.6, 0.6, 0.0, 0.0, -0.6, -0.89, -0.95, -1.24, -1.0, -1.19, -0.0, -0.0, -0.0, 0.52, -0.0, -0.0, 1.6, 2.54, 2.4, -0.0, -0.0, -0.0, -0.0, -0.0, -0.0, -0.0, -0.0, -0.0, -0.0, 1.63, 1.63, 1.63, 1.63, 1.63, 1.98, 3.22, 4.43, 3.72, -0.0, -5.81, -4.56, -1.05, 0.0, -0.0, -0.0, 1.63, 3.4, 4.74, 7.28, 7.45, 5.94, 0.0, -0.0, 0.0, -0.94, -1.84, -1.84, -1.75, -0.89, 0.0, 0.0, 0.95, 1.96, 2.67, 2.83, 3.6, 4.68, 3.99, 2.99, 2.82, 3.72, 5.49, 4.81, 5.21, 5.82, 6.7, 6.98, 4.19, 4.19, 2.89, 2.75, 2.32, 2.16, 1.7, 1.73, 2.2, 2.61, 2.86, 2.86, 2.22, 2.23, 1.6, 1.84, 1.61, 1.2, 1.0, 0.54, 0.54, 0.57, 0.6, 0.63, 1.2, 0.0, -0.89, -1.9, -1.61, -1.6, -1.7, -1.1, -0.56, -0.55, -0.55, -1.22, -0.74, -0.0, -0.0, -0.0, -0.0, -0.0, -0.0, -0.0, -0.0, -0.0, -0.0, 1.49, 1.49, 1.73, 1.52, 1.52, 1.52, 1.98, 1.98, 3.22, 4.11, 4.84, 5.21, 3.47, -0.0, -4.11, -2.2, -0.0, -0.0, -0.0, 1.52, 1.99, 3.97, 6.08, 6.58, 4.92, -0.0, -1.63, -1.14, -1.99, -3.63, -3.63, -2.69, -1.84, 0.0, 0.0, 0.89, 2.67, 2.83, 2.54, 3.27, 4.68, 4.87, 3.0, 3.0, 4.19, 3.72, 3.22, 4.43, 4.81, 5.95, 5.82, 4.81, 4.81, 2.86, 2.92, 2.29, 2.32, 2.36, 2.18, 2.4, 2.61, 2.86, 2.86, 2.22, 1.8, 1.84, 1.84, 1.61, 1.2, 1.0, 1.0, 0.65, 0.0, 0.0, 0.89, 2.24, 1.2, -0.89, -2.15, -1.6, -1.6, -1.73, -1.65, -0.57, -1.1, -1.18, -1.73, -1.71, -2.47, -2.57, -1.4, -0.0, -0.0, -0.0, -0.0, -0.0, -0.0, 1.32, 4.14, 4.14, 4.29, 1.98, 1.84, 1.98, 1.98, 3.22, 4.11, 4.84, 4.84, 5.21, 6.0, 3.48, -3.58, -4.02, -0.0, -0.0, -0.0, 1.7, 2.0, 3.48, 6.4, 6.0, 5.2, 1.55, -0.0, -0.0, -3.58, -4.74, -4.56, -4.2, -2.83, -0.89, 0.0, 0.94, 2.57, 2.7, 3.06, 3.63, 4.5, 5.24, 3.72, 3.72, 3.72, 2.8, 1.98, 2.6, 4.01, 4.74, 4.74, 4.01, 4.01, 2.86, 2.89, 2.75, 2.32, 2.16, 2.18, 2.4, 2.84, 2.86, 2.6, 2.22, 1.8, 1.84, 2.23, 1.88, 1.6, 0.0, 0.57, 1.24, 0.0, 0.45, -0.0, 1.2, -0.0, -3.16, -4.74, -1.6, -2.64, -2.82, -1.7, -1.14, -1.12, -1.76, -1.63, -2.26, -2.29, -2.32, -1.7, -0.95, -0.0, -0.0, -0.0, -0.0, 1.32, 2.69, 5.31, 6.63, 5.06, 1.98, -0.0, 1.63, 3.0, 3.47, 3.47, 4.43, 5.58, 6.0, 6.4, 5.51, 3.58, -3.16, -0.0, -0.0, 1.6, 1.27, 2.48, 3.48, 4.29, 4.6, 5.72, 6.08, 4.74, 3.0, -0.0, -3.97, -4.4, -4.07, -2.59, -0.85, 0.0, 1.68, 2.59, 1.76, 2.28, 2.7, 3.63, 4.5, 4.16, 3.72, 3.22, 2.8, 1.03, 2.12, 3.47, 4.19, 3.72, 3.97, 3.97, 3.32, 2.89, 2.92, 2.77, 2.32, 2.36, 2.18, 2.84, 2.86, 2.6, 2.22, 2.23, 1.6, 2.23, 2.21, 1.2, 0.63, 0.95, 3.13, 2.24, -3.48, -1.13, -0.59, -2.8, -3.91, -3.63, -3.91, -2.22, -1.76, -1.73, -1.7, -2.36, -2.16, -2.32, -2.32, -2.16, -1.7, -1.73, -1.08, -0.57, -0.0, -0.0, 0.54, 1.14, 2.8, 6.63, 6.08, 3.0, -0.0, -0.0, 1.4, 2.66, 3.2, 3.2, 3.91, 4.74, 6.28, 5.82, 5.73, 4.02, 3.58, -0.0, 3.16, -0.0, 1.27, 2.48, 3.48, 4.29, 4.98, 5.4, 6.36, 6.57, 5.37, 2.21, -1.99, -2.69, -2.83, -2.57, 0.0, 0.0, 1.84, 1.68, 0.85, 0.85, 1.75, 2.31, 3.09, 4.16, 4.01, 3.47, 2.8, 1.03, 0.0, 2.12, 3.47, 3.97, 2.82, 2.82, 3.49, 2.86, 2.73, 2.96, 2.8, 2.36, 2.18, 2.84, 2.86, 2.86, 2.22, 2.23, 2.23, 2.23, 2.53, 1.86, 1.2, 1.27, 1.2, -1.27, -4.29, -1.88, -1.84, -2.51, -2.84, -2.23, -2.23, -2.23, -2.23, -2.22, -2.44, -2.4, -2.4, -2.18, -2.18, -1.7, -1.73, -1.08, -1.11, -0.57, -0.0, -0.0, -0.0, 0.58, 1.65, 4.96, 4.29, -0.0, -0.0, -0.0, 1.49, 2.82, 2.99, 2.99, 4.14, 4.42, 6.01, 7.03, 7.6, 4.47, 3.13, 3.58, 2.84, -0.0, 1.27, 2.23, 3.16, 3.93, 4.98, 5.4, 5.94, 6.26, 4.98, 1.6, -1.05, -1.96, -0.76, 0.0, 0.0, 0.0, 0.0, 0.0, 0.0, 0.0, 0.85, 1.84, 2.83, 3.2, 3.2, 4.29, 4.19, 2.16, 0.0, 0.82, 2.8, 4.01, 3.11, 3.11, 3.49, 3.52, 2.89, 2.75, 2.77, 2.8, 2.82, 2.84, 2.84, 2.86, 2.22, 2.22, 2.22, 2.23, 2.23, 2.5, 1.86, 1.7, 0.89, -0.0, -0.95, -1.26, -1.58, -2.5, -2.5, -2.21, -2.53, -2.84, -2.58, -2.86, -2.86, -2.86, -2.86, -2.86, -2.44, -2.44, -1.76, -1.23, -1.11, -0.57, -0.63, -0.55, -0.54, -0.0, 1.12, 2.32, 1.4, -0.0, -0.0, -0.0, 1.32, 2.99, 2.99, 2.99, 2.99, 4.37, 6.32, 7.44, 7.6, 4.4, 0.0, 2.68, 2.68, 1.4, 1.27, 2.23, 3.72, 4.4, 4.4, 6.07, 6.51, 6.26, 0.0, -2.16, -0.96, 0.0, 0.0, 1.4, 2.53, 0.98, 0.0, 0.0, -0.85, 0.0, 0.0, 0.94, 1.75, 2.83, 3.09, 4.16, 4.01, 3.35, 0.0, 0.0, 2.6, 4.01, 3.97, 3.97, 3.3, 3.3, 3.32, 3.4, 2.96, 3.0, 2.82, 2.82, 2.84, 2.61, 2.44, 2.22, 2.22, 2.48, 2.51, 2.21, 1.9, 1.26, 0.45, 0.0, -0.89, -1.2, -1.49, -2.4, -2.68, -2.68, -2.79, -2.84, -2.84, -3.16, -2.86, -3.48, -3.15, -3.15, -2.86, -2.22, -1.58, -1.11, -1.27, -0.59, -0.57, -1.11, -1.08, -0.54, -0.0, -0.0, -0.0, -1.32, -0.0, -0.0, 1.32, 2.54, 2.99, 2.54, 2.99, 4.37, 5.53, 6.01, 6.71, 2.0, 1.27, 2.8, 2.21, -0.0, 1.41, 2.48, 2.48, 3.72, 4.4, 4.98, 5.64, 3.58, -4.58, -3.2, -1.52, 0.0, 1.2, 2.97, 3.58, 3.58, 2.98, 0.0, -0.94, 0.0, 0.0, 0.89, 1.84, 1.84, 1.95, 1.96, 3.33, 3.63, 1.83, 0.0, 1.84, 3.47, 3.33, 3.33, 3.94, 3.94, 3.32, 3.35, 3.4, 2.77, 2.8, 2.82, 2.82, 2.84, 2.2, 2.44, 2.22, 2.22, 2.23, 2.23, 1.88, 1.24, 0.0, 0.45, -0.89, -1.2, -1.86, -2.4, -2.68, -3.07, -2.79, -3.14, -2.84, -3.43, -3.43, -3.16, -3.48, -3.16, -2.86, -2.48, -1.8, -1.13, -1.13, -0.59, -0.51, -1.13, -1.8, -1.94, -1.7, -1.67, -1.32, -1.32, -0.0, -0.0, 1.4, 2.54, 2.99, 2.54, 2.99, 4.14, 4.42, 4.68, 5.58, 2.4, 0.0, 1.9, 1.6, -0.0, 1.19, 2.2, 2.4, 5.21, 4.8, 5.7, 6.26, -5.81, -6.18, -4.19, 0.0, 0.0, 2.4, 4.4, 4.92, 3.6, 3.9, 2.23, 0.0, -0.8, 0.0, 0.0, 0.94, 1.0, 0.89, 0.0, 1.84, 2.6, 1.83, 0.96, 1.7, 3.47, 3.9, 3.9, 3.94, 3.94, 3.97, 3.52, 3.37, 3.4, 3.45, 3.22, 2.82, 2.61, 2.4, 2.2, 2.2, 2.44, 1.76, 1.8, 1.84, 1.2, 0.0, 0.0, -0.89, -1.79, -2.17, -2.4, -2.91, -2.68, -3.07, -3.14, -3.35, -3.43, -3.43, -3.43, -3.43, -3.43, -2.86, -2.58, -2.23, -1.8, -1.13, -0.59, -0.0, -0.61, -1.6, -2.48, -3.12, -2.84, -1.73, -0.61, -0.0, 0.61, 1.16, 2.54, 1.32, 1.32, 2.54, 4.14, 4.14, 2.64, 3.4, 4.8, 4.02, -0.0, -0.0, -0.0, 1.05, 1.99, 2.99, 4.11, 5.37, 6.26, 6.26, 2.24, -6.44, -3.2, 0.0, 0.96, 1.66, 2.84, 4.92, 3.58, 3.9, 3.39, 0.0, -0.79, 0.0, 0.0, 0.0, 0.0, 0.0, 0.0, 0.0, 1.6, 1.7, 1.05, 1.7, 3.47, 3.9, 3.9, 4.12, 4.12, 3.97, 4.0, 3.56, 3.6, 3.4, 3.45, 3.22, 2.82, 2.18, 2.4, 2.2, 2.2, 1.73, 1.76, 1.8, 1.16, 0.0, -0.6, -1.34, -1.79, -2.24, -2.6, -2.91, -2.91, -3.07, -3.2, -3.35, -3.72, -3.43, -3.43, -3.43, -3.43, -3.16, -2.86, -2.23, -1.8, -1.13, -0.59, -0.0, -0.61, -1.61, -2.84, -3.48, -2.86, -2.44, -1.08, -0.0, -0.0, 0.61, 0.59, 1.32, 1.4, 2.83, 3.8, 2.82, 1.4, 1.58, 2.99, 3.72, 2.6, 1.41, 1.19, 1.05, 2.16, 3.22, 3.91, 5.51, 6.26, 6.26, 4.92, -3.22, -3.0, 0.0, 0.95, 1.72, 1.83, 2.84, 3.2, 3.58, 2.68, 0.0, -0.78, 0.0, 0.0, 0.0, 0.0, 0.0, 0.0, 0.0, 0.0, 0.89, 0.88, 1.84, 3.0, 3.9, 3.9, 4.6, 4.6, 3.94, 3.97, 4.0, 3.81, 3.83, 3.64, 3.45, 3.04, 2.82, 2.18, 2.18, 2.4, 2.2, 1.73, 1.76, 1.13, 0.53, -0.57, -1.7, -1.79, -2.24, -2.6, -3.07, -2.91, -3.39, -3.2, -3.6, -3.35, -3.72, -3.43, -3.43, -3.43, -3.16, -2.86, -2.23, -2.23, -1.8, -1.27, -0.57, -0.0, -0.0, -2.5, -4.0, -3.79, -2.86, -1.23, -0.0, -0.0, -0.0, -0.0, 0.59, 1.14, 2.54, 2.54, 2.54, 1.49, 1.73, 2.82, 4.29, 3.22, 1.84, 1.05, 1.63, 2.16, 3.91, 5.21, 5.94, 6.17, 6.26, 4.34, 0.0, -1.84, 0.0, 0.89, 1.84, 0.78, 0.96, 1.8, 2.68, -0.0, -0.0, 0.0, 0.0, 0.0, 0.0, 0.0, 0.0, 0.0, 0.0, 0.0, 0.0, 0.95, 1.6, 2.47, 4.16, 4.16, 4.6, 4.6, 4.4, 4.42, 4.0, 4.03, 4.05, 3.83, 3.84, 3.45, 2.8, 2.82, 2.36, 2.18, 2.18, 1.88, 1.73, 1.11, 0.0, -0.71, -1.49, -2.17, -2.24, -2.68, -3.07, -3.07, -3.39, -3.39, -3.6, -3.35, -3.72, -3.43, -3.43, -3.43, -3.16, -2.86, -2.23, -2.23, -1.8, -1.27, -1.11, -0.0, 0.57, -0.0, -2.4, -4.11, -4.07, -1.73, -0.55, -0.0, -0.0, -0.0, 0.53, 0.58, 1.23, 1.75, 1.32, 1.32, 2.67, 3.77, 3.91, 3.22, 3.22, 1.84, 1.98, 3.2, 5.24, 6.0, 6.64, 6.71, 6.71, 5.73, 1.8, 0.0, 0.0, 2.2, 1.03, 0.0, 0.0, 0.0, -2.68, -0.99, -0.0, 1.8, 3.13, 2.68, 0.99, 0.0, 0.0, 0.0, 0.0, 0.0, 0.0, 0.0, 0.78, 2.35, 3.2, 3.2, 4.57, 4.57, 4.6, 4.63, 4.66, 4.69, 4.03, 4.05, 3.83, 3.42, 3.0, 2.8, 2.8, 2.36, 2.36, 2.18, 1.7, 1.08, 0.51, -0.65, -1.86, -2.17, -2.24, -2.68, -3.13, -3.58, -3.98, -3.87, -3.6, -3.35, -3.72, -3.72, -3.43, -3.43, -3.43, -2.86, -2.23, -2.23, -1.8, -1.8, -1.11, -1.08, -0.0, -0.0, -0.0, -2.21, -3.78, -2.4, -0.0, -0.0, -0.0, 0.53, 0.58, 0.58, 1.14, 1.14, 1.4, 2.69, 2.67, 2.67, 3.0, 2.99, 2.99, 3.0, 3.72, 5.24, 5.58, 6.45, 6.71, 6.45, 6.88, 5.94, 1.8, -2.21, -2.21, -0.0, -0.0, 0.0, -0.94, -1.98, -3.82, -1.61, -0.0, 1.11, 3.22, 3.48, 3.47, 1.27, 0.0, 0.0, 0.0, 0.0, 0.0, 0.0, 0.0, 1.63, 2.51, 2.51, 5.02, 5.02, 4.6, 4.63, 4.42, 4.44, 4.69, 4.45, 4.05, 3.83, 3.42, 3.0, 2.8, 2.8, 2.16, 2.36, 1.7, 1.55, 0.63, 0.0, -1.24, -1.86, -2.4, -2.91, -3.53, -3.54, -4.02, -4.02, -4.3, -3.88, -3.72, -3.72, -3.43, -3.43, -3.43, -2.86, -2.86, -2.23, -1.8, -1.8, -1.8, -1.76, -1.73, -0.59, -0.0, -0.0, -2.8, -1.16, -0.0, 0.59, 0.59, 0.53, 0.58, 0.58, 1.14, 1.14, 1.16, 1.84, 2.67, 2.67, 2.64, 3.47, 3.72, 3.72, 5.58, 5.58, 6.0, 7.06, 6.26, 6.0, 6.0, 5.7, 2.21, -4.47, -4.89, -3.0, -0.0, -0.0, -1.05, -2.82, -4.65, -2.0, -0.54, -0.0, 1.6, 4.43, 4.81, 4.57, 2.21, 0.0, 0.88, 0.96, 0.0, -0.89, 0.0, 0.79, 2.26, 2.26, 5.02, 5.02, 5.26, 5.04, 5.06, 4.66, 4.69, 4.45, 4.71, 4.05, 3.83, 3.42, 3.0, 3.0, 2.8, 2.16, 2.36, 1.7, 1.19, 0.0, -1.2, -1.2, -1.9, -2.15, -2.49, -2.68, -3.13, -3.58, -4.44, -4.11, -3.72, -3.72, -3.43, -3.43, -3.16, -2.86, -2.86, -2.23, -2.23, -1.84, -1.8, -2.48, -2.44, -1.88, -1.16, -0.95, -0.95, -0.0, -0.0, 0.59, 0.59, 0.59, 0.59, 0.59, 1.16, 1.16, 1.26, 1.7, 1.84, 2.82, 3.55, 4.58, 4.58, 5.49, 5.95, 6.16, 5.6, 5.6, 5.51, 5.81, 4.02, 4.8, 3.72, -3.2, -6.0, -5.24, -1.03, 1.03, -0.0, -2.99, -4.81, -4.82, -1.2, -0.0, 1.2, 2.53, 4.0, 6.07, 5.29, 2.98, 1.98, 1.98, 0.0, -0.88, -0.83, 0.0, 1.55, 1.55, 5.02, 5.02, 5.26, 5.04, 5.06, 5.32, 5.08, 5.09, 4.45, 4.46, 4.05, 3.83, 3.42, 2.77, 2.77, 2.8, 2.32, 1.67, 1.16, 0.55, 0.0, -0.53, -1.2, -1.58, -1.7, -1.79, -1.49, -2.0, -5.26, -4.34, -3.88, -3.72, -3.43, -3.43, -3.16, -2.86, -2.86, -2.23, -1.8, -1.84, -1.84, -2.23, -2.86, -2.86, -2.61, -1.73, -0.55, -0.0, -0.0, -0.0, 0.54, 0.54, 0.54, 0.61, 0.61, 1.16, 1.16, 1.7, 1.7, 2.18, 4.42, 5.37, 5.49, 5.82, 6.21, 6.57, 5.94, 6.4, 6.0, 5.06, 3.22, 4.19, 6.8, 3.16, -4.98, -6.88, -3.48, -0.0, -0.0, -3.9, -5.82, -4.84, -3.9, -0.63, 0.42, 1.58, 3.35, 4.4, 6.64, 4.38, 2.98, 2.53, 1.13, 0.0, -0.78, 0.0, 0.79, 0.79, 5.02, 5.02, 5.26, 5.04, 5.29, 5.06, 5.32, 5.08, 5.09, 4.45, 4.46, 4.05, 3.83, 3.42, 2.96, 2.77, 2.32, 2.32, 1.67, 1.16, 0.0, 0.0, -0.53, -0.71, -1.34, -1.49, -1.9, -2.21, -2.79, -5.51, -4.11, -3.35, -3.43, -3.43, -3.16, -2.86, -2.86, -2.23, -1.8, -1.33, -1.16, -1.61, -2.23, -3.15, -2.86, -1.76, -1.23, -0.55, -0.0, -0.0, -0.0, -0.0, -0.0, -0.0, 0.55, 0.55, 1.19, 1.7, 2.4, 2.4, 3.49, 4.74, 6.08, 5.58, 6.0, 6.0, 5.94, 5.6, 6.4, 6.08, 5.06, 5.95, 5.94, 3.93, -2.23, -6.88, -5.73, -2.48, -2.68, -4.92, -5.75, -5.21, -4.19, -2.98, 0.0, 0.95, 2.4, 4.3, 6.71, 4.8, 2.48, 2.21, 2.21, 0.0, 0.0, 0.0, 0.0, 0.0, 5.23, 5.23, 5.26, 5.69, 5.29, 5.29, 5.32, 5.08, 5.34, 5.09, 4.45, 4.05, 4.05, 3.83, 3.42, 2.96, 2.96, 2.77, 2.14, 1.67, 0.61, 0.0, 0.0, -0.54, -1.2, -2.17, -2.91, -3.07, -3.6, -3.6, -3.6, -3.35, -3.43, -3.43, -2.86, -2.86, -2.86, -2.48, -1.8, -1.13, -0.61, -0.61, -1.84, -2.86, -2.86, -2.44, -1.23, -0.55, -0.0, -0.0, -0.0, -0.0, -0.0, 0.55, 0.55, 0.55, 1.08, 1.23, 1.73, 2.4, 5.03, 5.37, 5.72, 5.72, 5.37, 5.37, 5.37, 5.37, 6.4, 5.72, 5.58, 6.8, 6.51, 4.29, -0.0, -6.17, -6.71, -5.36, -4.38, -4.92, -5.09, -4.54, -4.19, -3.58, -2.4, 0.32, 2.17, 3.58, 6.02, 4.29, 2.0, 1.27, 2.21, 1.13, 0.0, 0.0, 0.0, 0.0, 5.67, 5.67, 5.69, 5.69, 5.7, 5.7, 5.46, 5.72, 5.08, 5.09, 4.69, 4.45, 4.05, 4.05, 4.05, 3.83, 3.4, 2.96, 2.77, 2.32, 1.16, 0.55, 0.0, 0.0, -1.26, -2.24, -2.68, -3.07, -3.39, -3.39, -3.6, -3.35, -3.35, -3.43, -2.86, -2.86, -2.48, -2.48, -1.8, -1.27, -0.59, -0.0, -0.53, -2.84, -3.49, -2.86, -1.23, -0.63, -0.0, -0.0, -0.0, -0.0, -0.0, 0.55, 0.55, 1.23, 1.23, 1.76, 1.76, 2.86, 3.49, 6.01, 6.08, 6.4, 6.4, 6.0, 4.98, 5.37, 5.37, 5.37, 5.2, 6.8, 6.0, 3.48, -0.0, -4.77, -6.71, -6.71, -5.81, -5.36, -4.66, -4.22, -3.48, -3.48, -2.84, 0.0, 1.7, 4.98, 4.11, 3.79, 2.2, 0.0, 0.0, 1.13, 0.0, 0.0, 0.0, 0.0, 5.67, 5.67, 5.69, 5.69, 5.95, 5.7, 5.7, 5.72, 5.72, 5.08, 5.09, 4.69, 4.45, 4.45, 4.71, 4.05, 4.05, 3.4, 2.96, 2.77, 1.8, 1.07, 0.57, 0.0, -0.71, -1.86, -2.24, -2.68, -3.07, -3.39, -3.2, -3.35, -3.35, -3.16, -3.16, -2.86, -2.48, -2.22, -1.58, -1.11, -0.57, -0.0, -0.0, -1.88, -3.48, -2.86, -1.76, -0.57, -0.0, -0.0, -0.0, -0.0, 0.63, 0.63, 1.23, 1.23, 1.23, 1.76, 1.76, 2.86, 3.49, 4.11, 7.28, 6.57, 6.0, 6.64, 5.4, 5.51, 5.6, 4.98, 6.4, 5.37, 7.45, 4.0, -0.0, -4.09, -5.36, -6.26, -6.26, -5.29, -4.15, -3.58, -3.58, -3.48, -2.95, 0.0, 2.76, 3.63, 3.63, 3.22, 2.4, 0.0, 0.0, 0.0, 0.0, 0.0, 0.0, 0.0, 5.67, 5.67, 5.92, 5.69, 5.95, 5.7, 5.7, 5.7, 5.72, 5.72, 5.08, 5.09, 5.09, 4.69, 4.45, 4.45, 4.05, 4.05, 3.4, 2.96, 2.77, 1.67, 1.19, 0.0, 0.0, -1.24, -2.12, -2.24, -2.68, -2.91, -3.07, -3.07, -3.14, -2.84, -3.16, -2.86, -2.48, -2.48, -1.58, -1.11, -0.63, -0.0, 0.55, -0.96, -2.84, -3.15, -1.76, -0.57, -0.0, -0.0, -0.0, 0.57, 0.63, 0.63, 1.23, 1.23, 1.76, 1.76, 2.44, 2.86, 3.49, 4.11, 7.28, 6.57, 6.57, 7.01, 5.7, 4.98, 4.98, 5.4, 4.98, 5.51, 7.45, 4.8, -3.72, -4.11, -4.29, -5.7, -5.81, -4.82, -4.0, -2.84, -3.16, -3.48, -1.83, 0.0, 1.7, 4.11, 4.54, 3.79, 3.22, 0.0, 0.0, 0.0, 0.0, 0.0, 0.88, 0.0, 5.67, 5.67, 5.92, 5.69, 5.95, 6.34, 5.7, 5.7, 5.98, 5.72, 5.46, 5.08, 5.34, 5.09, 4.69, 4.45, 4.45, 4.03, 4.05, 3.4, 3.42, 3.0, 1.84, 1.08, 0.0, -0.65, -1.24, -1.7, -2.24, -2.6, -2.91, -2.68, -2.79, -2.53, -2.84, -2.58, -2.48, -2.48, -1.58, -1.11, -1.11, -0.55, -0.0, -0.0, -1.13, -2.23, -1.76, -0.57, -0.0, -0.0, -0.0, 0.57, 0.57, 1.23, 1.23, 1.23, 1.76, 1.76, 2.22, 2.86, 3.49, 4.11, 6.63, 6.21, 6.57, 7.01, 6.07, 4.4, 4.8, 4.29, 4.98, 6.94, 7.45, 3.82, -4.77, -6.45, -5.37, -5.4, -5.36, -4.15, -3.16, -2.68, -2.68, -2.95, -1.83, 0.0, 1.83, 4.11, 4.98, 4.6, 3.93, 1.08, -0.96, -0.96, 0.0, 0.0, 0.88, 0.88, 5.67, 5.67, 5.92, 5.69, 6.08, 6.34, 6.34, 6.08, 5.98, 5.72, 5.72, 5.72, 5.08, 5.34, 5.09, 5.09, 5.09, 4.69, 4.45, 4.05, 3.83, 3.42, 2.8, 1.7, 1.08, 0.0, -0.54, -1.26, -1.79, -1.79, -2.0, -2.15, -2.21, -2.53, -2.23, -2.51, -2.23, -2.23, -1.8, -1.27, -1.11, -1.11, -0.55, -0.0, -0.0, -0.57, -1.23, -0.57, -0.0, -0.0, 0.57, 0.57, 0.57, 1.11, 1.23, 1.76, 1.76, 2.48, 2.48, 2.86, 2.86, 4.11, 4.65, 7.28, 7.06, 6.64, 4.98, 4.29, 4.29, 4.29, 5.4, 5.73, 7.01, 6.36, -0.0, -6.71, -6.64, -6.17, -5.36, -3.6, -2.84, -3.16, -3.16, -2.68, -0.88, 0.0, 1.83, 4.11, 4.98, 4.98, 4.8, 2.23, 0.0, -1.19, 0.0, 0.0, 0.88, 0.88, 6.07, 6.07, 6.33, 6.33, 6.08, 6.34, 6.34, 6.34, 6.08, 6.35, 5.98, 5.72, 5.72, 5.08, 5.34, 5.09, 5.09, 5.09, 4.69, 4.45, 4.05, 3.83, 3.42, 2.8, 1.7, 1.11, 0.0, 0.0, -0.95, -1.34, -1.6, -1.86, -1.9, -1.88, -1.61, -1.84, -1.84, -1.6, -1.6, -1.13, -1.13, -1.13, -0.57, -0.57, -0.0, -0.0, -0.0, -0.0, -0.0, -0.0, 0.57, 0.57, 0.57, 1.11, 1.11, 1.58, 1.58, 2.48, 2.48, 2.86, 2.86, 3.49, 6.01, 5.69, 5.37, 5.37, 4.89, 5.21, 4.29, 4.98, 5.51, 6.17, 7.15, 6.94, 5.21, -4.8, -6.71, -6.71, -5.36, -4.24, -2.84, -3.16, -2.68, -2.0, -0.88, 0.0, 1.84, 3.63, 4.11, 4.29, 4.4, 2.84, 0.0, -1.08, 0.0, 0.0, 1.03, 1.03, 6.07, 6.07, 6.33, 6.33, 6.08, 6.34, 6.34, 6.34, 6.34, 6.35, 6.35, 5.72, 5.72, 5.46, 5.34, 5.34, 5.09, 5.09, 5.09, 5.09, 4.71, 4.46, 4.08, 4.1, 3.04, 2.2, 1.27, 0.65, 0.0, -0.89, -0.89, -0.6, -0.99, -1.0, -1.2, -1.16, -1.16, -1.84, -1.13, -1.13, -1.13, -0.59, -0.59, -0.59, -0.57, -0.0, -0.0, -0.0, -0.0, 0.57, 0.57, 0.57, 0.57, 1.11, 1.11, 1.58, 1.8, 2.48, 2.48, 2.48, 3.15, 2.86, 3.49, 6.01, 5.69, 5.37, 5.72, 4.74, 4.29, 5.51, 6.2, 6.71, 7.6, 5.94, 6.08, 2.12, -4.09, -6.26, -5.7, -4.4, -2.98, -2.84, -3.16, -2.0, 0.0, 1.05, 1.84, 2.99, 3.79, 4.29, 4.4, 3.35, 0.0, -1.08, 0.0, 0.96, 0.96, 0.96, 6.07, 6.07, 6.33, 6.33, 6.33, 6.34, 6.34, 6.7, 6.7, 6.63, 6.35, 6.35, 5.72, 5.72, 5.46, 5.72, 5.72, 5.72, 5.72, 5.09, 5.09, 4.71, 4.46, 4.47, 4.1, 3.47, 2.44, 1.6, 1.0, 0.0, 0.0, -0.0, -0.0, -0.0, -0.54, -0.65, -0.53, -1.16, -1.16, -0.61, -0.61, -0.61, -0.0, -0.0, -0.0, -0.0, -0.0, -0.0, -0.0, 0.57, 0.57, 0.57, 1.11, 1.27, 1.27, 1.8, 1.8, 2.48, 2.48, 2.48, 2.86, 3.15, 3.48, 5.69, 5.69, 5.69, 6.08, 5.72, 4.98, 5.94, 6.64, 6.71, 6.64, 5.94, 4.89, 3.91, -0.0, -4.47, -5.4, -4.8, -4.09, -2.84, -2.84, -2.0, 0.0, 1.83, 2.76, 3.22, 3.22, 3.48, 3.72, 3.82, 0.0, 0.0, 1.19, 1.05, 1.05, 1.05, 6.07, 6.07, 6.33, 6.33, 6.33, 6.34, 6.98, 6.7, 6.7, 6.98, 6.35, 6.35, 6.35, 5.72, 5.72, 5.46, 5.72, 5.72, 5.72, 5.72, 5.09, 5.36, 5.1, 5.1, 4.47, 3.85, 3.49, 2.86, 2.23, 1.24, 1.2, 0.89, 0.63, -0.0, -0.0, -0.0, -0.0, -0.53, -0.61, -0.61, -0.61, -0.0, -0.0, -0.0, -0.0, -0.0, -0.0, -0.0, 0.57, 0.59, 0.66, 0.66, 1.27, 1.27, 1.27, 1.8, 1.8, 2.23, 2.48, 2.48, 2.86, 2.86, 3.16, 3.48, 6.63, 6.9, 7.47, 6.57, 6.45, 6.64, 8.05, 6.2, 5.94, 5.6, 4.89, 5.24, 4.11, -0.0, -4.4, -4.65, -3.79, -2.68, -2.0, -0.88, 0.0, 0.88, 2.68, 4.29, 4.29, 3.16, 4.4, 2.8, 0.0, 0.0, 1.08, 1.99, 1.99, 1.99, 6.31, 6.31, 6.33, 6.33, 6.33, 6.61, 6.98, 6.98, 6.7, 6.98, 6.98, 6.35, 6.35, 6.08, 5.72, 5.72, 6.0, 5.72, 5.72, 5.72, 5.72, 5.72, 5.72, 5.1, 5.1, 5.08, 4.45, 4.11, 3.43, 2.79, 2.0, 1.79, 1.34, 1.2, 0.8, 0.71, -0.0, -0.0, -0.0, -0.0, -0.0, -0.0, -0.0, -0.0, -0.0, -0.0, -0.0, 0.57, 0.66, 0.59, 0.59, 1.13, 1.27, 1.27, 1.8, 1.8, 1.8, 2.23, 2.48, 2.86, 2.86, 2.86, 3.43, 3.48, 4.65, 7.6, 7.63, 6.88, 6.88, 7.1, 6.64, 6.36, 5.6, 5.6, 5.6, 6.0, 6.0, 4.4, -2.21, -4.29, -3.49, -2.99, -2.16, -0.88, 0.0, 0.0, 2.68, 3.93, 4.8, 4.8, 3.16, 3.2, 2.53, 0.0, 1.41, 2.4, 2.4, 2.4, 6.58, 6.58, 6.33, 6.33, 6.33, 6.33, 6.98, 6.98, 6.7, 6.98, 6.98, 6.69, 6.35, 6.35, 6.08, 5.72, 6.0, 5.72, 5.72, 6.06, 6.34, 6.01, 5.72, 5.72, 5.71, 5.69, 5.06, 4.43, 4.07, 3.72, 3.07, 2.63, 2.24, 2.12, 1.49, 1.24, 0.71, 0.54, -0.0, -0.0, -0.0, -0.0, -0.0, -0.0, -0.0, -0.0, -0.0, 0.57, 1.27, 1.13, 1.13, 1.13, 1.13, 1.13, 1.8, 1.8, 1.8, 2.23, 2.23, 2.86, 3.16, 3.16, 3.43, 3.48, 4.29, 7.6, 7.47, 7.06, 7.06, 6.0, 6.36, 5.6, 5.6, 5.94, 5.94, 6.0, 6.57, 6.0, 3.58, -1.41, -3.22, -3.22, -3.22, -1.83, 0.0, 0.0, 0.88, 2.95, 4.29, 3.2, 3.2, 2.84, 1.8, 1.27, 1.08, 2.2, 2.2, 2.2, 6.58, 6.58, 6.33, 6.33, 6.33, 6.33, 6.98, 6.98, 6.98, 6.98, 6.98, 6.98, 6.35, 6.35, 6.35, 6.08, 6.08, 6.35, 6.06, 6.06, 6.34, 6.34, 6.04, 6.32, 6.01, 6.01, 5.65, 5.35, 4.94, 4.55, 4.11, 3.39, 3.13, 2.68, 2.6, 1.86, 1.24, 1.24, 0.65, 0.65, 0.65, 0.65, 0.53, 0.51, -0.0, -0.0, -0.0, 0.59, 1.13, 1.13, 1.13, 1.13, 1.13, 1.6, 1.6, 1.8, 2.51, 2.51, 2.51, 3.16, 3.16, 3.43, 3.43, 3.78, 4.07, 6.63, 6.63, 5.69, 6.9, 6.57, 6.88, 6.45, 6.45, 6.45, 5.94, 6.0, 6.0, 6.57, 5.94, 3.6, -1.19, -3.91, -4.19, -2.4, 0.0, 0.0, 0.88, 2.0, 2.84, 2.53, 2.84, 2.84, 1.8, 1.27, 1.41, 2.2, 2.2, 2.2, 6.58, 6.58, 6.33, 6.33, 6.33, 6.33, 6.61, 6.98, 6.98, 6.98, 6.98, 6.98, 6.98, 6.35, 6.35, 6.35, 6.08, 6.35, 6.35, 6.06, 6.34, 6.34, 6.64, 6.32, 6.32, 6.28, 6.23, 5.93, 5.49, 5.47, 4.8, 4.19, 3.98, 3.58, 3.13, 2.6, 2.0, 1.58, 1.49, 1.2, 1.2, 1.2, 1.2, 1.16, 0.59, -0.0, -0.0, 0.59, 1.13, 1.6, 1.13, 1.13, 1.13, 1.84, 1.84, 2.51, 2.51, 2.51, 2.51, 2.84, 3.16, 3.43, 3.43, 3.43, 3.48, 5.49, 5.37, 6.11, 6.18, 6.57, 6.88, 7.15, 6.71, 6.64, 6.45, 6.0, 5.58, 5.95, 6.57, 6.26, 2.84, -2.16, -3.72, -3.0, -1.84, 0.0, 2.0, 2.68, 1.8, 1.98, 2.53, 3.72, 2.84, 1.8, 1.27, 2.0, 2.0, 2.0, 6.58, 6.58, 6.33, 6.33, 6.33, 6.61, 6.61, 6.98, 6.98, 6.98, 6.98, 6.98, 6.98, 6.69, 6.69, 6.35, 6.35, 6.35, 6.35, 6.06, 6.34, 6.64, 6.32, 6.32, 6.62, 6.28, 6.23, 6.15, 6.03, 5.75, 5.31, 5.09, 4.34, 3.98, 3.58, 3.13, 2.6, 2.4, 1.9, 1.9, 1.9, 1.49, 1.2, 1.16, 1.13, 0.59, 0.59, 0.59, 1.13, 1.84, 1.84, 1.84, 1.84, 1.84, 2.23, 2.23, 2.51, 2.51, 2.84, 2.84, 2.84, 3.43, 3.43, 3.43, 3.43, 4.74, 5.84, 6.11, 6.18, 6.6, 6.57, 7.08, 7.15, 7.15, 6.64, 6.0, 5.58, 5.95, 6.57, 6.88, 5.81, 1.41, -1.99, -2.99, -3.0, 0.0, 1.8, 2.68, 2.0, 0.98, 1.13, 2.53, 2.53, 2.84, 2.48, 2.48, 2.48, 2.48, 6.58, 6.33, 6.33, 6.33, 6.33, 6.61, 6.61, 6.98, 6.98, 7.32, 7.6, 6.98, 6.98, 6.98, 6.69, 6.69, 6.64, 6.35, 6.35, 6.35, 6.34, 6.34, 6.59, 6.87, 6.87, 6.79, 6.23, 6.51, 6.41, 5.89, 5.6, 5.31, 5.24, 4.44, 4.02, 3.58, 3.13, 2.6, 2.4, 2.15, 1.9, 1.9, 1.61, 1.61, 1.33, 0.59, 0.59, 1.13, 1.84, 1.84, 1.84, 1.84, 1.84, 2.23, 2.23, 2.51, 2.51, 2.84, 2.84, 3.14, 3.14, 3.35, 3.72, 3.43, 2.84, 3.43, 5.49, 5.37, 5.37, 5.37, 6.18, 6.21, 6.36, 5.4, 6.2, 5.6, 5.58, 6.57, 6.88, 7.08, 7.15, 4.92, -2.21, -4.98, -3.35, -0.88, 0.98, 1.8, 2.84, 2.23, 1.13, 1.13, 3.16, 2.48, 2.48, 2.73, 2.73, 2.73, 6.33, 6.33, 6.33, 6.33, 6.33, 6.61, 6.61, 6.98, 6.98, 7.32, 7.6, 7.3, 7.3, 6.98, 6.69, 6.69, 6.97, 6.35, 6.35, 6.35, 6.34, 6.64, 6.59, 6.87, 6.52, 6.79, 6.51, 6.51, 6.41, 6.28, 6.0, 5.81, 5.09, 4.77, 4.44, 4.02, 3.58, 3.07, 2.49, 2.4, 2.4, 2.15, 2.5, 1.88, 1.16, 0.61, 0.61, 1.33, 1.84, 1.84, 1.84, 1.84, 1.84, 2.23, 2.23, 2.51, 2.84, 2.84, 3.14, 3.14, 3.14, 3.14, 3.35, 3.35, 3.35, 3.35, 4.89, 5.06, 5.84, 6.18, 6.18, 5.84, 5.49, 4.19, 4.65, 4.89, 6.0, 6.88, 7.08, 7.08, 7.15, 5.36, -2.21, -6.36, -4.11, -0.88, 0.0, 0.98, 2.84, 2.23, 1.13, 1.13, 2.48, 3.48, 3.48, 3.48, 3.48, 3.48, 6.71, 6.71, 6.33, 6.33, 6.61, 6.61, 6.34, 6.98, 6.98, 7.32, 7.6, 7.6, 7.3, 7.3, 6.98, 6.97, 6.97, 6.67, 6.35, 6.65, 6.64, 6.64, 6.59, 6.87, 6.52, 6.79, 6.51, 6.51, 6.41, 6.28, 6.0, 5.81, 5.51, 4.8, 4.34, 3.98, 3.58, 3.58, 3.07, 2.91, 2.4, 2.4, 2.5, 2.21, 1.61, 0.61, 0.61, 1.16, 1.84, 2.23, 1.84, 1.84, 2.23, 2.23, 2.84, 2.84, 3.14, 3.14, 3.14, 3.35, 3.35, 3.35, 3.35, 3.35, 3.35, 3.35, 3.14, 3.72, 6.21, 6.6, 6.6, 6.6, 6.18, 5.37, 5.49, 4.74, 6.0, 6.45, 6.45, 6.45, 6.88, 5.4, -6.26, -6.36, -4.54, -1.66, 0.0, 0.98, 1.8, 2.23, 1.98, 1.98, 3.16, 4.09, 3.48, 3.72, 3.72, 3.72, 6.71, 6.71, 6.71, 6.33, 6.61, 6.61, 6.7, 6.98, 6.98, 6.98, 7.6, 7.6, 7.3, 7.3, 7.59, 6.97, 6.97, 6.97, 6.67, 6.65, 6.64, 6.64, 6.92, 6.87, 6.79, 6.79, 6.51, 6.15, 6.41, 6.28, 6.1, 5.81, 5.31, 5.09, 4.77, 4.44, 4.02, 3.58, 3.53, 3.09, 3.07, 2.91, 2.68, 2.53, 1.84, 1.16, 1.2, 1.2, 1.88, 2.53, 2.23, 2.23, 2.53, 2.79, 3.14, 3.14, 3.14, 3.14, 3.43, 3.72, 3.72, 3.35, 3.35, 3.6, 3.6, 3.6, 3.2, 3.6, 6.0, 6.6, 6.8, 6.8, 6.8, 7.2, 6.6, 6.57, 6.0, 6.0, 6.0, 5.58, 5.58, 5.24, -4.47, -6.0, -4.89, -2.4, 0.0, 0.0, 0.98, 2.23, 1.98, 1.98, 3.16, 3.72, 3.72, 3.35, 3.35, 3.35, 6.71, 6.71, 6.71, 6.98, 6.98, 6.98, 6.7, 6.98, 6.98, 6.98, 7.6, 7.6, 7.3, 7.3, 7.59, 6.97, 6.97, 6.97, 6.67, 6.95, 6.64, 6.64, 6.92, 6.87, 6.79, 6.79, 6.7, 6.41, 6.41, 6.28, 6.1, 5.6, 5.4, 5.09, 5.24, 4.77, 4.44, 4.02, 3.58, 3.53, 3.53, 3.09, 2.91, 2.5, 2.53, 1.61, 1.88, 1.61, 1.88, 2.21, 2.53, 2.53, 2.79, 2.79, 3.14, 3.14, 3.14, 3.14, 3.72, 3.43, 3.88, 3.88, 3.72, 3.6, 3.6, 3.6, 3.6, 3.82, 4.11, 7.12, 7.53, 7.12, 6.8, 6.8, 7.53, 7.37, 7.08, 6.45, 6.0, 5.49, 4.58, 4.19, -0.0, -4.98, -4.89, -3.49, -0.98, 0.0, 0.0, 1.13, 1.98, 1.98, 2.53, 3.72, 3.72, 3.72, 3.72, 3.72, 6.71, 6.71, 6.71, 6.98, 6.98, 6.98, 6.98, 6.98, 6.98, 6.98, 7.6, 7.6, 7.3, 7.59, 7.59, 7.27, 6.97, 6.97, 6.67, 6.95, 6.64, 6.92, 6.92, 6.87, 6.79, 6.79, 6.7, 6.79, 6.41, 6.28, 6.1, 6.0, 5.81, 5.57, 5.09, 4.8, 4.44, 4.02, 4.02, 3.58, 3.58, 3.53, 3.39, 2.5, 2.21, 2.21, 1.88, 1.88, 1.88, 2.21, 2.53, 2.79, 2.79, 2.79, 2.79, 3.14, 3.14, 3.14, 3.35, 3.72, 4.27, 4.27, 4.27, 4.11, 4.11, 4.11, 3.7, 3.87, 4.34, 6.94, 7.12, 6.6, 6.6, 6.6, 6.99, 6.57, 6.45, 6.45, 6.0, 4.74, 4.58, 5.37, 2.16, -4.02, -5.6, -4.89, -2.68, -0.98, 0.0, 0.87, 1.98, 1.98, 2.23, 3.72, 3.72, 3.72, 3.72, 3.72, 6.71, 6.71, 6.71, 6.98, 6.98, 6.98, 6.98, 6.98, 6.98, 6.98, 7.6, 7.6, 7.3, 7.59, 7.59, 7.59, 7.27, 6.97, 6.95, 6.95, 6.64, 6.92, 6.59, 6.87, 6.79, 6.79, 6.7, 6.95, 6.41, 6.28, 6.51, 6.1, 5.81, 5.99, 5.57, 5.24, 4.89, 4.47, 4.02, 4.02, 4.02, 4.02, 3.53, 2.91, 2.15, 2.15, 2.21, 2.21, 2.21, 2.5, 2.5, 2.79, 3.14, 3.07, 3.07, 3.07, 3.2, 3.45, 3.35, 3.35, 3.88, 4.27, 4.4, 4.52, 4.11, 4.11, 4.3, 4.3, 4.34, 6.45, 6.6, 6.18, 6.18, 6.6, 6.21, 6.57, 5.58, 4.89, 5.37, 4.74, 5.49, 6.18, 3.22, -3.72, -6.17, -5.37, -3.22, -0.98, 0.0, 0.0, 1.13, 1.98, 2.84, 4.09, 3.72, 3.16, 3.16, 3.16, 6.71, 6.71, 6.98, 6.98, 6.98, 6.98, 6.98, 6.98, 6.98, 6.98, 7.6, 7.6, 7.6, 7.59, 7.59, 7.59, 7.27, 7.27, 6.95, 6.95, 6.64, 6.92, 6.32, 6.62, 6.79, 7.07, 6.7, 6.95, 6.56, 6.67, 6.51, 6.1, 6.3, 5.99, 5.57, 5.26, 5.33, 4.47, 4.02, 4.02, 4.02, 4.02, 3.98, 2.91, 2.4, 2.4, 2.15, 2.5, 2.5, 2.68, 2.5, 3.07, 3.6, 3.6, 3.6, 3.6, 3.6, 3.6, 3.6, 3.6, 4.0, 4.11, 4.6, 4.6, 4.6, 4.3, 4.3, 4.3, 4.43, 4.34, 5.09, 7.12, 6.8, 6.6, 6.6, 6.6, 5.95, 5.58, 5.58, 5.58, 6.21, 6.6, 3.91, -2.48, -6.17, -5.6, -4.65, -1.8, 0.0, 0.0, 1.13, 1.98, 2.84, 3.72, 3.72, 2.84, 2.84, 2.84, 6.71, 6.71, 6.98, 6.98, 6.98, 6.98, 6.98, 6.98, 6.98, 6.98, 7.6, 7.6, 7.6, 7.3, 7.59, 7.27, 7.27, 7.55, 6.95, 6.95, 6.92, 6.92, 6.32, 6.62, 6.57, 6.7, 6.7, 6.95, 6.56, 6.8, 6.51, 6.51, 6.3, 6.04, 5.99, 5.7, 5.24, 4.88, 4.44, 4.02, 4.02, 4.02, 3.98, 3.32, 2.91, 2.8, 2.15, 2.4, 2.91, 2.68, 2.5, 3.07, 3.6, 3.6, 3.6, 3.6, 3.72, 3.72, 3.35, 3.6, 3.6, 4.11, 4.19, 4.6, 4.77, 4.34, 4.34, 4.44, 4.43, 4.43, 4.88, 7.1, 6.57, 7.6, 6.57, 6.99, 6.57, 6.21, 6.21, 6.57, 6.57, 6.6, 4.74, -1.08, -5.81, -5.6, -4.11, -2.2, -0.98, 0.0, 0.0, 0.87, 2.23, 2.98, 2.98, 2.21, 2.21, 2.21, 6.71, 6.71, 6.98, 6.98, 6.98, 6.98, 6.98, 6.98, 6.98, 6.98, 7.6, 7.6, 7.3, 7.59, 7.59, 7.27, 7.55, 7.23, 6.95, 6.92, 6.92, 6.59, 6.87, 6.28, 6.57, 6.51, 6.51, 6.56, 6.56, 6.67, 6.28, 6.51, 6.3, 5.88, 5.99, 5.57, 5.24, 4.8, 4.44, 4.44, 4.44, 4.47, 3.58, 3.07, 2.91, 2.91, 2.4, 2.4, 2.63, 2.91, 2.91, 3.32, 3.82, 3.7, 4.11, 3.72, 3.72, 3.72, 3.72, 3.6, 3.6, 4.3, 4.3, 4.34, 4.34, 4.34, 4.44, 4.44, 4.43, 4.47, 4.47, 4.89, 5.24, 8.38, 6.94, 6.94, 6.94, 6.57, 6.57, 6.57, 6.99, 6.6, 5.49, -0.0, -4.77, -5.4, -4.11, -3.22, -2.2, 0.0, 0.0, 0.0, 0.0, 1.13, 2.21, 2.53, 2.53, 2.53, 6.71, 6.71, 6.98, 6.98, 6.98, 6.98, 6.98, 6.98, 6.98, 6.98, 7.6, 7.6, 7.3, 7.59, 7.59, 7.27, 7.55, 7.23, 6.95, 6.92, 6.92, 6.59, 6.87, 6.28, 6.57, 6.51, 6.51, 6.56, 6.56, 6.67, 6.28, 6.51, 6.3, 5.88, 5.99, 5.57, 5.24, 4.8, 4.44, 4.44, 4.44, 4.47, 3.58, 3.07, 2.91, 2.91, 2.4, 2.4, 2.63, 2.91, 2.91, 3.32, 3.82, 3.7, 4.11, 3.72, 3.72, 3.72, 3.72, 3.6, 3.6, 4.3, 4.3, 4.34, 4.34, 4.34, 4.44, 4.44, 4.43, 4.47, 4.47, 4.89, 5.24, 8.38, 6.94, 6.94, 6.88, 6.57, 6.57, 6.57, 6.99, 6.6, 5.84, 2.16, -2.48, -4.92, -4.98, -4.11, -3.22, -1.19, -1.19, -0.96, 0.0, 0.0, 0.0, 1.27, 1.27, 1.27]}, {"header": {"dx": 0.06612293990616946, "dy": 0.0552356325346848, "nx": 98, "ny": 59, "la1": 35.046912555036876, "la2": 31.78801023549047, "lo1": -121.43107172385933, "lo2": -114.95102361305473, "refTime": "2026041720", "parameterCategory": 1, "parameterNumber": 3}, "data": [-4.94, -4.11, -3.49, -3.49, -2.82, -2.82, -2.82, -2.36, -2.36, -1.7, -1.16, -1.16, 0.0, 0.0, 0.85, 1.75, 3.77, 3.97, 4.56, 4.56, 3.4, 2.99, 2.64, 1.01, 0.0, -2.84, -3.2, -2.48, -3.48, -3.48, -4.4, -4.4, -4.77, -4.77, -4.92, -5.36, -5.36, -5.36, -4.82, -4.0, -2.68, -0.0, 1.52, 1.73, 1.49, 0.95, -0.0, -0.0, -0.0, -1.03, -2.16, -2.16, -1.99, -1.99, -2.4, -2.95, -3.16, -2.48, -2.84, -2.53, -1.6, -2.84, -3.82, -4.4, -5.4, -5.94, -6.36, -6.45, -6.88, -6.57, -6.88, -6.45, -6.45, -6.64, -6.64, -6.71, -7.15, -7.11, -8.0, -8.45, -8.77, -8.72, -8.4, -7.81, -6.32, -4.46, -3.8, -2.83, -1.84, -1.84, -2.12, -1.19, 0.0, 0.0, -3.2, -5.26, -6.36, -7.37, -4.94, -4.37, -4.11, -3.49, -3.08, -2.82, -2.82, -2.36, -1.7, -1.07, -0.55, 0.0, 0.0, 0.84, 1.26, 2.69, 2.82, 4.37, 4.83, 3.72, 4.14, 3.6, 2.82, 1.49, 0.96, -1.08, -3.58, -3.35, -3.72, -4.8, -4.98, -5.4, -5.94, -5.51, -6.36, -6.0, -4.89, -2.95, -1.27, -0.0, 1.3, 1.73, 1.49, 1.84, 0.89, -0.0, -0.0, -0.0, -1.03, -0.96, -2.16, -1.14, -1.05, -1.66, -1.8, -2.48, -2.48, -2.23, -1.8, -1.6, -1.6, -2.53, -3.35, -4.4, -5.4, -5.6, -5.6, -6.0, -6.16, -6.57, -6.57, -6.45, -6.17, -6.17, -6.64, -6.71, -7.6, -7.11, -8.0, -8.45, -8.77, -8.72, -8.4, -7.81, -6.32, -4.46, -3.8, -2.83, -1.84, -1.84, -2.12, -1.19, 0.0, 0.0, -3.2, -5.26, -6.36, -7.37, -4.94, -4.37, -4.11, -3.49, -3.49, -3.08, -2.82, -2.18, -1.73, -1.08, -0.57, 0.0, 0.89, 1.84, 2.4, 1.84, 2.67, 2.99, 4.22, 4.37, 3.97, 2.99, 3.4, 3.4, 3.4, 0.0, -4.24, -4.92, -5.26, -6.17, -6.45, -6.88, -6.57, -7.47, -6.21, -5.1, -0.94, 0.89, 1.84, 2.82, 3.2, 2.35, 1.96, 1.01, 1.01, -0.0, -0.0, -0.0, -1.03, -0.96, -0.96, -1.14, -1.05, -2.2, -2.23, -2.23, -2.23, -1.27, -1.27, -2.23, -2.23, -3.72, -4.0, -4.98, -4.98, -5.37, -5.6, -5.6, -6.0, -5.58, -5.6, -5.94, -5.73, -5.73, -6.71, -7.15, -8.05, -8.05, -8.01, -8.9, -9.24, -8.99, -8.72, -8.21, -6.7, -5.3, -4.03, -2.83, -2.54, -2.83, -1.96, -0.96, 1.41, 2.21, -2.21, -4.4, -5.94, -6.88, -5.21, -4.37, -4.11, -3.49, -3.22, -2.84, -2.84, -2.2, -1.57, -0.57, -0.57, 0.0, 0.89, 2.4, 2.54, 2.83, 2.67, 2.99, 3.97, 3.97, 3.97, 3.4, 3.4, 1.84, 2.82, 0.0, -3.16, -5.81, -6.26, -7.15, -6.71, -5.36, -4.47, -5.81, -5.94, -0.0, 1.49, 3.15, 2.82, 2.82, 2.82, 1.96, 1.84, 0.95, -0.0, -0.0, -0.0, -0.0, -1.03, -0.96, -0.88, -1.99, -2.4, -2.2, -2.48, -2.48, -2.23, -2.48, -2.48, -2.48, -3.48, -4.4, -4.98, -5.4, -5.37, -4.89, -5.24, -4.81, -4.81, -5.21, -6.0, -5.94, -5.73, -4.92, -5.81, -7.15, -7.6, -8.49, -8.9, -9.34, -8.82, -9.49, -8.72, -8.72, -7.82, -7.2, -5.69, -4.68, -4.26, -3.6, -2.82, -1.98, 0.0, 2.53, 0.0, -4.09, -5.6, -6.57, -5.21, -4.37, -4.11, -3.79, -3.49, -3.2, -2.86, -2.22, -1.76, -0.57, -0.57, -0.57, 0.0, 1.95, 1.84, 2.54, 3.2, 3.97, 3.72, 4.19, 4.56, 3.4, 3.2, 3.4, 1.84, 1.63, -2.2, -5.36, -6.26, -4.98, -2.73, 0.0, 0.96, 1.19, 3.48, 4.8, 3.72, 1.49, 0.95, 0.95, -0.0, -0.0, -0.0, -0.0, -0.0, -0.0, -0.0, -1.03, -0.96, -1.84, -2.16, -3.22, -3.22, -2.95, -2.2, -2.2, -2.48, -2.73, -2.2, -3.48, -4.29, -4.6, -5.4, -5.37, -4.89, -5.24, -5.58, -5.95, -5.95, -6.57, -6.57, -6.45, -5.75, -6.26, -6.2, -6.07, -7.54, -8.05, -8.94, -8.8, -9.26, -9.49, -9.49, -8.99, -8.17, -7.76, -7.2, -6.91, -5.69, -4.87, -3.72, -2.99, 0.0, 2.53, 0.0, -3.72, -5.37, -6.57, -5.21, -4.65, -4.07, -4.07, -3.48, -2.86, -2.86, -2.23, -1.8, -1.13, -0.57, -0.63, 0.0, 1.0, 1.05, 2.67, 3.97, 4.19, 4.89, 3.91, 4.19, 3.91, 4.56, 4.56, 3.97, 3.47, 3.79, 4.47, 0.0, 0.0, 2.84, 3.93, 4.29, 4.34, 4.34, 2.95, 1.14, -0.0, -0.0, -1.03, -1.03, -1.49, -1.84, -1.01, -0.95, -0.95, -1.98, -1.98, -2.99, -2.99, -2.99, -4.11, -3.22, -3.22, -2.4, -2.2, -2.2, -2.2, -3.22, -3.22, -4.29, -4.98, -5.6, -6.0, -5.58, -5.95, -5.95, -6.21, -7.12, -7.53, -7.53, -7.37, -7.54, -7.6, -7.15, -7.37, -7.37, -7.54, -8.49, -9.34, -9.49, -9.49, -9.49, -9.49, -8.99, -8.72, -8.3, -7.6, -6.57, -4.89, -3.22, 0.0, 2.48, 2.48, 0.0, -4.24, -5.37, -6.4, -5.21, -4.65, -4.07, -3.73, -3.43, -3.16, -2.84, -2.23, -1.6, -1.13, -1.11, -1.08, 0.0, 0.89, 1.49, 3.91, 4.89, 5.37, 5.37, 4.54, 3.63, 3.91, 4.43, 5.24, 5.72, 6.36, 6.26, 6.26, 6.26, 4.92, 6.26, 5.36, 4.92, 4.0, 3.48, 2.53, -0.0, -0.0, -1.73, -1.05, -1.98, -1.63, -3.4, -2.82, -2.99, -3.0, -3.0, -3.22, -2.99, -4.74, -4.74, -4.11, -3.22, -1.99, -1.05, -1.05, -1.19, -2.2, -2.4, -3.22, -4.65, -4.98, -6.0, -5.58, -5.95, -5.95, -6.6, -7.12, -7.81, -7.85, -7.85, -7.85, -8.01, -8.49, -8.49, -8.44, -8.0, -8.0, -8.45, -9.35, -9.49, -9.66, -9.49, -9.49, -9.49, -8.82, -8.3, -7.37, -5.26, -2.21, 1.98, 3.48, 4.43, 1.99, 0.0, -4.24, -5.37, -6.0, -5.37, -4.93, -4.0, -4.0, -3.43, -3.14, -2.53, -2.23, -1.84, -1.6, -1.58, -1.76, 1.03, 4.19, 4.74, 5.09, 5.51, 5.94, 5.2, 5.37, 4.29, 3.58, 4.98, 5.94, 6.36, 6.51, 6.71, 6.51, 6.26, 5.94, 6.4, 7.89, 7.45, 5.58, 2.76, 2.76, 1.05, -0.0, -0.0, -0.0, -0.0, -0.0, -1.63, -3.4, -3.4, -4.83, -4.58, -3.72, -3.91, -4.74, -3.49, -2.99, -2.16, -1.14, -1.14, -1.05, -1.05, -1.19, -2.2, -3.22, -4.29, -4.98, -5.37, -5.58, -5.58, -6.21, -6.99, -7.37, -7.54, -7.37, -7.37, -7.98, -8.0, -8.49, -8.49, -8.05, -8.49, -8.45, -8.9, -9.35, -8.67, -8.67, -8.14, -8.4, -8.4, -8.14, -7.6, -5.6, 0.0, 4.92, 5.09, 4.54, 3.0, 1.03, -1.27, -4.34, -5.37, -6.0, -5.6, -4.55, -4.0, -3.88, -3.35, -2.79, -2.53, -2.21, -1.84, -1.8, -1.8, -1.8, 1.84, 5.01, 6.36, 6.26, 6.26, 6.71, 6.64, 6.61, 6.71, 6.71, 6.26, 7.15, 6.71, 7.15, 7.15, 7.01, 6.26, 5.58, 6.08, 7.89, 8.82, 7.89, 3.22, 2.16, 3.2, 1.63, -0.0, -0.0, -0.0, -0.0, -1.98, -3.0, -4.56, -4.74, -4.83, -4.83, -4.29, -3.91, -4.29, -2.99, -1.98, -1.98, -1.03, -0.96, -0.96, -0.96, -2.2, -3.48, -4.29, -4.98, -4.98, -5.37, -5.6, -6.16, -6.57, -6.45, -6.17, -5.94, -5.94, -6.2, -6.71, -6.65, -7.11, -8.49, -8.94, -8.9, -9.35, -8.91, -9.24, -8.55, -7.67, -7.28, -7.42, -7.07, -6.39, -3.22, 2.23, 5.09, 4.19, 1.7, 0.0, 0.0, -2.48, -4.34, -5.37, -6.0, -5.6, -4.55, -4.27, -3.88, -3.6, -3.07, -2.68, -2.21, -2.23, -2.23, -2.23, -2.23, 0.0, 0.53, 5.2, 6.26, 6.17, 5.81, 6.71, 6.71, 7.15, 7.15, 7.6, 8.05, 7.6, 7.6, 7.15, 7.6, 7.15, 6.0, 6.4, 8.05, 8.94, 8.94, 6.4, 3.2, 3.2, 2.16, 1.63, -0.0, -0.0, -1.05, -2.76, -2.99, -3.91, -3.72, -3.97, -3.77, -4.42, -3.97, -3.72, -3.72, -3.2, -2.82, -2.82, -1.84, -1.98, -2.16, -2.4, -3.79, -4.29, -4.29, -5.58, -4.98, -5.94, -5.6, -5.6, -5.09, -4.38, -4.77, -4.77, -4.82, -4.82, -5.75, -6.65, -7.6, -8.49, -8.9, -8.9, -8.94, -9.36, -9.11, -8.05, -7.06, -6.39, -5.69, -4.71, -2.51, 0.88, 2.76, 1.7, 0.0, 0.0, 0.0, -1.41, -4.24, -4.98, -6.0, -5.6, -4.69, -4.4, -3.88, -3.6, -3.2, -3.07, -2.79, -2.84, -2.84, -2.58, -2.23, -1.6, -0.53, 2.84, 4.47, 4.34, 0.89, 0.63, 0.63, 4.47, 4.92, 5.36, 6.26, 7.01, 7.01, 6.51, 7.15, 7.15, 6.71, 6.26, 6.36, 7.95, 8.05, 6.57, 4.56, 3.2, 1.73, -0.0, -0.0, -1.99, -3.22, -3.49, -3.72, -3.0, -3.72, -3.55, -4.42, -4.68, -4.68, -4.68, -4.68, -5.24, -5.24, -4.68, -3.6, -2.99, -2.8, -2.99, -3.79, -4.65, -4.98, -4.98, -5.94, -5.94, -4.98, -4.65, -4.8, -4.77, -4.24, -4.24, -3.82, -3.9, -4.85, -6.2, -7.15, -7.11, -8.44, -8.9, -9.39, -9.39, -9.26, -8.91, -7.32, -6.01, -5.59, -4.37, -2.31, 0.0, 0.0, 0.0, 0.0, 0.0, 0.0, 0.0, -3.13, -4.29, -5.6, -6.0, -5.08, -4.4, -4.11, -3.7, -3.2, -3.07, -2.79, -2.84, -2.84, -2.84, -2.84, -2.23, -1.0, 0.0, 0.6, 0.0, 0.0, -0.63, -0.4, 0.6, 0.6, 0.95, 5.81, 6.07, 6.07, 5.51, 2.68, 4.77, 5.94, 4.74, 5.69, 6.64, 7.12, 7.1, 4.89, 2.76, 1.05, -0.0, -1.99, -3.49, -3.22, -3.22, -1.7, -0.0, -1.27, -1.84, -3.97, -5.69, -5.59, -5.53, -5.53, -5.24, -5.69, -4.42, -3.4, -2.67, -2.64, -2.99, -4.11, -4.11, -5.37, -5.94, -6.45, -6.36, -6.0, -4.89, -5.4, -5.26, -5.26, -4.0, -3.6, -3.9, -5.26, -6.26, -7.15, -7.54, -7.54, -7.56, -8.05, -9.39, -9.79, -9.92, -8.8, -7.06, -6.32, -4.96, -2.99, -1.65, -0.74, 0.0, 0.0, 0.0, 0.94, 1.01, 0.0, -4.24, -5.94, -6.1, -5.31, -4.4, -4.11, -3.7, -3.6, -3.6, -3.35, -3.43, -3.43, -3.09, -2.84, -2.23, -1.61, -1.24, -0.6, -0.6, -1.2, -1.2, -0.95, -0.6, -0.4, 0.0, 0.32, 0.89, 0.8, 0.63, 0.45, 1.2, 1.26, 4.11, 5.24, 6.01, 6.82, 7.1, 5.81, 3.9, 1.6, -0.0, -1.27, -2.48, -1.27, -0.0, 1.4, 4.92, 4.92, 5.36, 4.02, 0.0, -2.2, -2.23, -1.8, -1.13, -0.0, -0.0, 3.48, -0.0, -1.84, -2.99, -3.79, -4.98, -5.6, -6.45, -6.64, -6.88, -6.6, -6.21, -6.57, -6.36, -5.94, -5.4, -5.4, -5.7, -6.26, -6.71, -7.15, -7.54, -7.1, -6.66, -7.11, -7.56, -9.34, -9.26, -9.49, -8.8, -7.76, -6.32, -4.83, -3.09, -2.26, -1.55, -0.79, 0.0, 0.0, 0.0, 0.0, -3.2, -5.7, -6.51, -5.81, -4.9, -4.6, -4.11, -4.11, -3.7, -3.88, -3.64, -3.43, -3.72, -3.35, -2.79, -2.21, -1.58, -1.49, -1.49, -1.49, -1.6, -1.2, -1.2, -1.2, -0.89, -0.45, -0.45, -0.0, -0.0, 0.0, 0.45, 1.26, 3.2, 6.6, 8.0, 6.8, 7.12, 6.57, 3.93, 2.21, 0.0, -0.0, 1.9, 2.21, 4.92, 5.36, 6.26, 6.71, 5.73, 6.4, 5.58, 5.21, 5.21, 5.51, 6.07, 6.94, 7.37, 5.6, 5.81, -0.0, -3.4, -4.29, -5.4, -7.45, -7.89, -7.89, -6.17, -5.51, -4.8, -5.51, -6.94, -5.94, -6.17, -6.17, -6.71, -7.15, -7.6, -7.6, -7.6, -7.15, -7.15, -7.54, -8.0, -8.29, -8.36, -8.19, -8.55, -8.8, -7.15, -6.11, -4.65, -3.2, -2.26, -1.55, -1.55, -0.94, -0.79, 0.0, -0.96, -4.92, -7.01, -5.81, -5.31, -4.6, -4.6, -4.19, -4.11, -4.27, -4.0, -3.64, -3.88, -3.35, -2.98, -2.68, -2.15, -1.86, -1.86, -1.7, -1.7, -1.2, -1.2, -1.34, -1.34, -1.34, -0.63, -0.0, -0.0, 0.8, 2.24, 3.58, 4.89, 5.7, 9.03, 8.38, 8.85, 9.04, 6.63, 2.48, 4.02, 3.13, 4.02, 5.81, 5.81, 6.26, 6.26, 6.71, 6.71, 6.51, 6.94, 6.4, 6.4, 6.51, 6.94, 6.94, 6.51, 5.72, 6.4, 1.98, -2.6, -6.4, -5.73, -6.51, -5.36, -4.47, 0.0, 0.0, 0.0, 0.0, -3.48, -6.71, -5.81, -5.81, -6.71, -8.05, -8.0, -8.0, -8.05, -7.6, -7.15, -7.1, -6.94, -7.37, -7.21, -7.71, -7.6, -8.21, -7.76, -7.2, -5.46, -4.58, -3.77, -3.2, -3.0, -2.35, -1.73, -1.01, -4.29, -4.29, -7.09, -6.3, -5.4, -5.09, -4.6, -4.6, -4.4, -4.27, -4.0, -4.0, -3.88, -3.35, -3.35, -3.07, -2.15, -2.4, -2.0, -2.12, -1.7, -1.2, -1.2, -0.89, -0.89, -1.2, -0.0, 0.95, 1.86, 2.49, 4.77, 6.26, 6.26, 6.71, 6.24, 8.94, 9.83, 8.8, 7.63, 4.8, 4.92, 5.36, 5.36, 5.81, 6.71, 7.15, 6.71, 6.71, 6.71, 6.71, 6.51, 6.51, 6.51, 6.51, 6.51, 5.94, 4.84, 4.43, 5.58, 5.81, -0.0, -6.08, -5.26, -4.02, 4.92, 5.81, 6.51, 6.8, 4.74, 4.37, 1.49, -1.98, -2.68, 2.24, -3.58, -7.54, -8.29, -8.29, -7.85, -7.1, -6.71, -6.71, -6.64, -6.88, -7.12, -7.53, -7.2, -6.55, -6.99, -6.99, -6.57, -5.58, -4.58, -4.01, -3.47, -3.33, -2.51, -1.55, -3.35, -3.35, -7.51, -6.6, -5.81, -5.4, -5.09, -4.6, -4.4, -4.17, -4.0, -4.0, -3.88, -3.35, -3.2, -3.07, -2.68, -2.4, -2.0, -2.17, -2.17, -1.7, -1.2, -0.63, -0.6, -0.89, -0.0, 1.9, 2.68, 3.2, 5.09, 6.61, 6.68, 7.13, 7.13, 9.76, 8.91, 9.39, 8.94, 7.6, 6.71, 6.71, 7.15, 6.71, 7.6, 6.71, 7.6, 7.45, 7.45, 6.94, 6.07, 6.07, 6.07, 5.94, 5.94, 4.84, 4.11, 3.22, 3.47, 5.21, 4.47, -4.11, -4.4, 4.47, 6.26, 6.26, 6.07, 4.98, 5.95, 4.56, 1.32, 0.0, 3.58, 6.51, 5.7, -4.98, -8.17, -8.17, -8.06, -7.37, -6.71, -7.15, -7.1, -7.12, -7.53, -7.63, -7.35, -6.55, -5.84, -6.0, -6.0, -5.24, -4.46, -4.84, -4.43, -4.01, -3.97, -3.33, -4.01, -4.01, -8.0, -7.01, -6.3, -5.81, -5.31, -4.9, -4.8, -4.17, -4.0, -4.0, -3.88, -3.6, -3.07, -3.07, -2.68, -2.4, -2.0, -2.0, -2.6, -2.24, -0.89, 0.0, 0.0, -0.6, -0.0, 1.61, 3.2, 3.2, 4.6, 6.04, 6.23, 6.61, 7.06, 6.94, 7.4, 9.06, 8.56, 8.38, 7.6, 7.6, 7.6, 8.05, 7.6, 7.6, 7.94, 6.9, 6.9, 5.72, 5.94, 5.51, 5.94, 5.94, 4.84, 4.11, 3.22, 3.22, 3.47, 3.0, 3.48, -0.0, -0.0, 4.92, 5.36, 5.36, 5.09, 4.0, 3.48, 3.2, 3.0, 2.6, 4.66, 6.71, 7.15, -0.0, -7.58, -8.21, -8.4, -8.48, -8.0, -8.05, -8.44, -8.56, -8.99, -8.4, -8.17, -7.2, -6.11, -5.58, -5.58, -5.58, -5.6, -5.94, -5.2, -4.81, -4.74, -4.74, -4.81, -4.81, -8.0, -7.51, -6.6, -5.81, -5.4, -4.9, -4.8, -4.55, -4.0, -3.64, -3.88, -3.6, -3.07, -2.79, -2.5, -3.2, -1.34, -1.7, -1.86, -1.79, 0.0, 2.24, 2.4, 3.13, 3.16, 4.74, 3.2, 6.16, 6.57, 5.09, 5.7, 6.16, 6.47, 6.51, 6.79, 6.3, 5.81, 5.09, 6.64, 7.15, 6.26, 6.71, 7.6, 7.94, 8.06, 6.63, 5.31, 5.06, 5.94, 6.26, 6.51, 6.0, 5.21, 5.21, 4.43, 3.72, 3.0, 3.2, 1.84, 0.0, 3.16, 4.47, 4.47, 3.2, 3.82, 3.72, 3.48, 3.22, 2.76, 4.29, 4.56, 4.74, 6.0, 3.58, -5.95, -8.8, -8.95, -9.49, -9.35, -9.39, -9.24, -9.49, -9.68, -9.11, -8.99, -8.17, -7.2, -5.82, -5.58, -4.84, -5.6, -6.17, -6.36, -5.21, -5.24, -5.58, -5.95, -5.95, -8.3, -7.51, -7.01, -6.1, -5.81, -5.31, -4.9, -4.55, -4.0, -3.64, -3.88, -3.35, -3.2, -2.79, -2.21, -0.6, -0.63, -0.95, 0.0, 0.0, 3.48, 3.39, 3.53, 5.6, 4.89, 4.54, 4.89, 3.88, 4.11, 4.6, 5.09, 5.31, 5.4, 5.81, 5.81, 5.4, 5.09, 4.6, 4.34, 3.98, 4.47, 4.47, 4.89, 5.7, 5.6, 5.31, 4.56, 6.0, 6.26, 6.71, 7.01, 6.64, 6.4, 6.4, 4.89, 4.74, 5.03, 3.33, 0.96, 0.0, 0.0, 4.02, 3.16, 4.47, 3.82, 3.72, 3.48, 3.22, 1.99, 2.16, 2.12, 2.82, 3.22, 2.21, -4.98, -8.06, -8.48, -8.56, -9.39, -9.39, -9.21, -9.24, -9.35, -9.35, -8.77, -7.71, -6.94, -5.82, -4.81, -5.21, -5.6, -6.17, -6.26, -6.36, -5.21, -5.95, -6.57, -6.57, -8.72, -8.0, -7.09, -6.51, -5.6, -5.31, -4.9, -4.55, -4.0, -4.0, -3.88, -3.35, -3.35, -3.35, -2.53, -1.24, -0.6, -0.42, 0.6, 3.82, 3.22, 2.5, 3.07, 3.14, 2.84, 2.79, 2.79, 3.35, 3.35, 3.88, 4.27, 4.8, 4.8, 4.9, 4.9, 5.09, 4.6, 4.34, 3.87, 3.98, 4.47, 4.47, 4.92, 5.78, 6.04, 7.44, 5.72, 6.71, 7.15, 7.15, 7.45, 7.06, 7.47, 7.47, 6.9, 6.18, 6.01, 3.91, 0.0, 0.0, 0.0, 0.0, 2.84, 4.47, 3.82, 3.35, 3.16, 2.95, 1.99, 2.16, 1.98, 0.0, -1.99, -3.2, -5.26, -6.88, -5.31, -6.26, -7.15, -7.6, -8.05, -8.49, -8.94, -8.49, -8.45, -8.29, -7.53, -6.4, -6.4, -5.15, -5.24, -5.4, -6.26, -5.75, -5.6, -4.81, -5.43, -5.43, -8.72, -8.22, -7.51, -6.6, -6.1, -5.6, -5.08, -4.55, -4.55, -4.0, -3.88, -3.88, -3.88, -3.35, -2.79, -1.88, -1.24, -0.57, 0.0, 1.34, 0.95, 1.26, 1.58, 1.88, 1.88, 2.21, 2.53, 2.84, 3.09, 3.43, 3.43, 4.0, 4.0, 4.0, 4.27, 4.27, 4.11, 4.3, 3.87, 3.98, 4.43, 4.44, 4.89, 5.36, 6.16, 5.81, 7.01, 7.15, 8.05, 8.05, 7.94, 7.47, 7.47, 7.47, 7.47, 7.28, 6.32, 4.96, 0.0, -2.2, -2.68, 0.0, 0.0, 2.8, 3.82, 3.35, 2.48, 2.2, 2.2, 1.52, 1.63, 0.0, -4.92, -5.4, -5.73, -4.47, -3.58, -2.8, -2.53, -3.9, -5.81, -7.15, -8.45, -8.94, -8.94, -8.44, -7.85, -7.53, -6.94, -5.82, -4.81, -4.19, -4.92, -5.36, -5.2, -4.81, -5.95, -5.95, -8.79, -8.79, -8.3, -6.8, -6.51, -6.0, -5.08, -5.08, -4.55, -4.17, -4.27, -3.88, -3.88, -3.72, -3.14, -2.21, -1.9, -1.26, 0.0, 0.0, -0.0, 0.6, 0.99, 1.2, 1.61, 1.61, 2.23, 2.84, 2.84, 3.16, 3.43, 3.48, 3.78, 3.78, 3.43, 3.88, 3.7, 3.87, 3.82, 3.53, 3.98, 3.87, 4.34, 4.89, 5.81, 6.26, 7.6, 7.94, 8.05, 8.05, 7.94, 7.63, 7.47, 7.63, 7.47, 7.28, 6.45, 6.01, 0.0, -4.0, -3.82, -1.4, 2.21, 4.02, 4.24, 3.72, 3.72, 2.48, 2.2, 1.99, 1.41, 0.0, -5.49, -6.4, -6.07, -3.58, -2.4, -0.99, 0.0, 0.0, -1.98, -6.26, -8.44, -8.94, -8.94, -8.9, -8.29, -8.29, -7.81, -6.88, -5.82, -4.54, -4.57, -4.92, -5.51, -5.21, -5.82, -5.82, -9.01, -9.01, -8.3, -7.81, -6.8, -6.1, -5.6, -5.08, -5.08, -4.55, -4.4, -4.27, -3.88, -3.88, -3.35, -2.79, -2.5, -1.86, -0.89, 0.0, -0.0, 0.6, 1.24, 1.2, 1.61, 1.84, 2.23, 2.51, 2.84, 2.86, 2.86, 3.16, 3.48, 3.16, 3.43, 3.72, 3.6, 3.39, 3.39, 3.53, 3.09, 3.39, 3.6, 4.52, 5.09, 5.57, 7.94, 7.94, 8.05, 8.05, 8.38, 7.63, 7.47, 7.63, 7.47, 6.9, 6.18, 6.55, 3.72, -4.8, -4.92, -1.9, 3.2, 4.47, 4.77, 4.4, 4.8, 3.47, 2.4, 1.14, 0.0, -0.0, -4.42, -5.24, -6.71, -5.81, -4.8, -2.2, 0.0, 1.8, 0.98, -3.35, -7.15, -8.01, -8.49, -8.49, -8.44, -7.98, -7.1, -6.71, -6.45, -5.2, -4.57, -4.82, -5.09, -5.21, -5.46, -5.46, -9.01, -9.01, -8.51, -8.22, -7.31, -6.8, -5.75, -5.37, -5.08, -4.69, -4.8, -4.4, -4.4, -4.27, -4.11, -3.6, -3.07, -2.4, -1.79, -0.45, -0.0, -0.0, 0.54, 1.2, 1.16, 1.61, 1.84, 2.51, 2.23, 2.86, 2.86, 2.86, 2.86, 2.86, 3.43, 3.09, 3.35, 3.6, 3.39, 3.53, 3.13, 3.07, 3.2, 3.72, 4.37, 4.55, 4.6, 4.88, 4.92, 4.88, 5.24, 7.63, 7.94, 7.94, 7.63, 6.9, 6.9, 6.16, 6.8, 2.4, 0.0, 2.68, 4.02, 4.92, 5.26, 4.98, 4.98, 4.11, 3.22, 0.0, 0.0, 0.0, -4.83, -6.4, -6.26, -5.73, -4.15, -2.84, 0.0, 0.0, 0.98, -1.13, -5.81, -7.11, -7.6, -7.6, -7.6, -7.15, -6.71, -6.26, -7.15, -5.59, -5.09, -5.26, -5.09, -5.21, -5.46, -5.46, -9.42, -9.42, -8.51, -8.0, -7.71, -7.2, -6.8, -5.75, -5.37, -5.08, -4.9, -4.8, -4.4, -4.4, -4.6, -4.11, -3.6, -2.91, -2.24, -1.2, -0.0, -0.0, -0.0, 0.65, 1.16, 1.16, 1.84, 1.6, 2.23, 2.48, 2.86, 2.86, 2.86, 2.86, 3.16, 3.43, 3.35, 3.6, 3.39, 3.53, 3.58, 3.07, 2.68, 2.84, 3.48, 4.0, 4.27, 4.34, 4.47, 4.47, 4.88, 5.33, 7.94, 8.38, 8.48, 7.6, 7.06, 7.01, 7.89, 7.47, 5.58, 5.2, 4.24, 4.77, 5.26, 5.4, 5.37, 4.89, 1.84, 0.0, 0.0, 0.0, -4.29, -6.0, -6.71, -6.64, -6.02, -4.57, -2.84, -1.6, 0.0, 0.0, -4.02, -6.21, -6.26, -6.71, -6.71, -6.71, -6.26, -6.26, -7.15, -6.71, -6.2, -5.29, -5.51, -6.0, -5.46, -5.46, -9.2, -9.2, -9.01, -8.51, -8.0, -7.08, -6.56, -6.67, -5.75, -5.47, -5.08, -4.9, -4.9, -4.8, -4.4, -4.6, -4.11, -3.39, -2.63, -1.7, -0.57, -0.0, -0.0, 0.65, 0.61, 1.16, 1.13, 1.6, 1.8, 2.23, 2.48, 2.86, 2.86, 2.86, 3.16, 3.43, 3.35, 3.35, 3.6, 3.82, 3.98, 4.02, 2.68, 1.88, 2.86, 3.79, 4.0, 4.3, 4.47, 4.47, 4.92, 5.36, 5.33, 5.7, 7.63, 7.63, 7.63, 7.45, 6.94, 6.57, 5.72, 4.29, 5.51, 5.26, 6.51, 5.4, 4.89, 3.47, 1.98, 1.03, 0.0, -1.08, -4.02, -5.51, -6.71, -7.1, -7.37, -6.21, -4.82, -3.6, 0.0, 3.58, 2.24, -3.58, -4.92, -4.92, -5.81, -6.26, -6.26, -6.71, -6.26, -6.71, -7.15, -6.64, -5.59, -5.75, -5.82, -5.82, -9.2, -9.2, -8.8, -8.28, -8.0, -7.48, -6.95, -6.56, -6.03, -5.75, -5.6, -5.08, -5.31, -4.9, -4.9, -5.02, -4.6, -3.87, -3.13, -2.12, -0.99, -0.54, -0.0, -0.0, 0.61, 0.61, 1.13, 1.13, 1.8, 2.23, 2.48, 2.86, 2.86, 2.86, 3.16, 3.43, 3.35, 3.35, 3.6, 3.82, 3.87, 4.47, 3.98, 2.24, 1.2, 1.76, 3.49, 4.6, 4.44, 4.47, 4.92, 5.36, 5.34, 5.78, 6.14, 7.85, 7.94, 7.94, 7.12, 6.6, 4.89, 4.29, 4.29, 5.51, 5.94, 6.4, 4.19, 3.0, 0.95, 0.0, 0.0, -0.96, -3.6, -4.47, -4.47, -4.4, -6.17, -7.6, -6.71, -4.47, -0.0, 2.97, 3.58, 3.6, 0.0, 0.0, -2.97, -5.81, -6.71, -6.71, -7.15, -7.15, -7.15, -6.71, -6.21, -6.28, -6.4, -6.4, -9.71, -9.71, -9.2, -8.68, -8.15, -7.61, -7.48, -6.95, -6.56, -6.28, -6.0, -5.6, -5.6, -5.31, -5.31, -4.9, -5.09, -4.34, -3.54, -2.6, -1.24, -0.54, -0.0, -0.0, -0.0, -0.0, 0.57, 1.11, 1.8, 2.23, 2.48, 2.48, 2.86, 2.86, 2.86, 3.43, 3.35, 3.35, 3.6, 3.6, 3.87, 4.34, 4.92, 6.26, 5.36, 2.21, 3.15, 4.8, 4.92, 4.92, 5.36, 5.34, 5.78, 5.78, 5.7, 5.7, 8.38, 8.06, 7.12, 7.12, 6.0, 4.98, 4.98, 6.0, 5.58, 4.19, 3.72, 1.84, 0.0, -1.84, -1.96, -1.98, -3.6, -2.21, 2.21, 4.02, 3.13, -4.92, -7.54, -5.94, -1.27, 2.68, 3.58, 3.87, 4.84, 3.48, 0.87, -3.82, -5.81, -6.26, -6.26, -6.26, -5.81, -6.71, -6.71, -6.51, -6.7, -6.7, -9.48, -9.48, -9.2, -8.68, -8.28, -7.76, -7.61, -7.23, -6.95, -6.56, -6.28, -6.0, -5.6, -5.6, -5.4, -5.31, -5.09, -4.66, -4.43, -3.13, -1.86, -1.24, -1.2, -1.16, -0.59, -0.51, -0.0, -0.0, 1.23, 2.22, 2.48, 2.48, 2.86, 2.86, 2.86, 3.43, 3.43, 3.35, 3.6, 3.6, 3.6, 4.11, 4.6, 5.33, 5.36, 5.81, 5.6, 5.24, 4.92, 5.33, 5.33, 5.34, 5.78, 5.78, 5.7, 5.7, 5.24, 5.51, 7.12, 7.12, 6.16, 5.21, 5.58, 5.58, 3.72, 3.72, 3.0, 2.82, 0.0, -3.0, -3.0, -1.14, -2.21, -0.0, 3.91, 6.0, 6.71, 4.02, -5.26, -6.57, -3.49, 1.0, 2.17, 3.13, 3.2, 4.43, 4.01, 1.83, -2.21, -4.47, -4.38, -4.82, -4.92, -7.1, -7.15, -7.11, -6.79, -6.79, -9.48, -9.48, -9.35, -8.96, -8.43, -8.15, -7.61, -7.23, -7.07, -6.95, -6.56, -6.28, -6.0, -6.0, -5.6, -5.4, -5.31, -5.09, -4.77, -3.58, -2.4, -2.4, -1.9, -1.61, -1.0, -0.0, -0.0, -0.0, 0.55, 1.76, 2.48, 2.48, 2.86, 2.86, 3.16, 3.43, 3.43, 3.35, 3.35, 3.07, 3.6, 3.72, 4.27, 5.02, 5.24, 6.64, 6.64, 4.92, 4.92, 5.33, 5.33, 5.33, 5.33, 5.33, 5.24, 5.24, 5.67, 5.09, 5.51, 6.57, 6.21, 5.49, 5.49, 4.58, 3.97, 2.64, 2.8, 2.8, 1.84, 0.0, 0.0, 2.4, 2.48, 1.6, 3.0, 4.19, 6.17, 6.17, 3.13, -4.98, -4.01, -0.96, 0.6, 1.79, 2.4, 2.53, 2.86, 3.79, 0.88, -1.98, -2.98, -2.98, -4.02, -5.29, -6.65, -7.15, -6.98, -6.98, -9.48, -9.48, -9.35, -8.96, -8.43, -8.27, -7.9, -7.35, -7.23, -6.7, -6.95, -6.56, -6.28, -6.1, -6.1, -5.6, -5.81, -5.57, -5.24, -4.44, -3.58, -2.63, -2.4, -1.58, -0.57, -0.0, 0.99, 1.0, 1.05, 1.08, 2.22, 2.48, 2.86, 2.86, 3.16, 3.43, 3.43, 3.35, 3.6, 3.07, 3.07, 3.35, 3.43, 4.0, 4.17, 4.6, 4.44, 4.47, 4.92, 4.92, 4.89, 4.89, 4.89, 4.88, 4.88, 5.24, 5.24, 5.09, 5.09, 4.9, 6.18, 5.37, 4.58, 3.33, 3.55, 2.82, 1.98, 3.2, 3.0, 5.06, 5.37, 5.24, 3.4, 3.16, 1.99, 1.96, 3.48, 5.36, 4.47, -0.98, -3.33, -3.22, -0.98, 0.63, 1.27, 1.58, 2.23, 2.2, 0.95, -0.88, -1.98, -2.53, -3.39, -4.92, -6.21, -6.71, -7.11, -7.11, -9.48, -9.48, -9.35, -8.96, -8.82, -8.43, -8.27, -7.9, -7.35, -7.23, -6.7, -6.95, -6.56, -6.28, -6.51, -6.1, -5.81, -5.81, -5.57, -5.24, -4.02, -3.13, -2.63, -2.12, -0.0, 0.99, 1.9, 2.21, 2.23, 1.84, 1.76, 2.23, 2.86, 2.86, 3.16, 3.43, 3.43, 3.35, 3.6, 3.32, 2.91, 2.68, 3.35, 3.78, 4.0, 4.11, 4.3, 4.44, 4.47, 4.92, 4.92, 4.92, 4.92, 4.47, 4.44, 4.44, 4.77, 5.09, 4.8, 4.8, 4.65, 4.74, 4.56, 3.72, 3.0, 3.0, 1.98, 2.8, 3.2, 4.56, 5.06, 3.97, 1.98, 2.95, 3.35, 1.96, 0.96, 3.72, 3.58, -0.0, -2.47, -3.47, -3.35, -1.98, 0.0, 0.95, 1.2, 1.23, 0.0, -2.4, -3.72, -2.21, -2.21, -4.02, -5.81, -7.15, -6.71, -6.71, -9.88, -9.88, -9.35, -9.1, -8.82, -8.82, -8.27, -7.9, -7.72, -7.35, -7.23, -6.95, -6.95, -6.56, -6.28, -6.51, -6.51, -6.1, -5.88, -5.57, -4.88, -4.02, -3.13, -2.17, -0.6, 0.54, 1.16, 1.84, 1.8, 1.8, 1.8, 2.23, 2.86, 2.86, 3.43, 3.43, 3.43, 3.72, 3.6, 3.39, 3.07, 3.07, 3.07, 3.43, 4.0, 4.27, 4.3, 4.44, 4.47, 4.47, 4.47, 4.47, 4.47, 4.44, 4.44, 4.44, 4.34, 4.3, 4.6, 4.8, 6.28, 5.37, 4.29, 4.29, 3.22, 3.22, 3.22, 3.22, 3.2, 4.29, 3.72, 3.4, 1.63, 3.22, 4.47, 1.03, -0.0, -0.0, 0.88, -0.0, -1.7, -3.63, -3.35, -2.68, -1.2, 0.32, 0.54, 0.0, -1.72, -3.22, -4.0, -3.82, -2.21, -3.39, -4.92, -6.26, -6.71, -6.71, -9.63, -9.63, -9.1, -9.1, -8.55, -8.55, -8.18, -8.0, -7.9, -7.35, -7.61, -7.23, -6.95, -6.95, -6.95, -6.56, -6.8, -6.51, -6.1, -5.81, -5.24, -4.44, -3.58, -2.68, -1.26, -0.0, -0.0, 0.61, 1.13, 1.13, 1.8, 2.23, 2.23, 2.86, 3.43, 3.43, 3.72, 3.72, 3.6, 3.82, 3.53, 3.13, 2.63, 2.84, 4.07, 4.0, 4.3, 4.43, 4.47, 4.47, 4.47, 4.47, 4.47, 4.44, 4.44, 4.3, 4.3, 4.11, 4.11, 4.0, 4.07, 6.01, 4.56, 3.2, 3.2, 3.0, 2.99, 3.22, 3.22, 3.22, 2.6, 3.4, 3.0, 3.48, 4.02, 1.19, -0.0, -0.0, -0.0, -0.0, -1.55, -2.53, -3.48, -3.48, -2.84, -0.45, -0.57, -2.99, -4.11, -3.79, -4.4, -4.47, -4.02, -3.39, -4.47, -5.36, -6.26, -6.26, -9.63, -9.63, -9.1, -9.1, -8.93, -8.55, -8.55, -8.0, -8.0, -7.9, -7.35, -7.61, -7.23, -7.23, -7.07, -6.95, -6.95, -6.8, -6.51, -6.1, -5.99, -4.8, -3.98, -3.13, -2.12, -1.24, -0.0, -0.0, 0.61, 1.13, 1.6, 2.23, 2.23, 3.16, 3.16, 3.43, 3.72, 3.88, 3.7, 3.87, 3.98, 4.02, 3.58, 2.5, 3.48, 4.0, 4.11, 3.98, 4.02, 4.02, 4.02, 4.47, 4.43, 4.43, 4.3, 4.3, 4.3, 4.11, 4.11, 4.0, 4.07, 4.11, 4.37, 2.82, 3.0, 2.66, 2.16, 1.84, 2.8, 2.99, 3.2, 3.22, 1.49, 2.0, 3.58, 2.73, -0.0, -0.0, -0.0, -0.88, -1.66, -2.68, -2.68, -3.48, -3.93, -4.02, -4.6, -4.54, -4.54, -4.29, -4.8, -4.92, -4.47, -4.47, -4.02, -4.92, -5.81, -5.81, -9.63, -9.63, -9.48, -9.1, -8.93, -8.55, -8.55, -8.55, -8.0, -8.0, -7.9, -7.35, -7.35, -7.61, -7.23, -7.23, -6.95, -6.95, -6.8, -6.51, -6.1, -5.57, -4.77, -4.02, -2.68, -1.86, -0.71, -0.0, -0.0, 1.16, 1.84, 1.84, 2.51, 2.84, 3.16, 3.43, 3.72, 3.72, 3.7, 3.87, 4.43, 4.47, 4.44, 4.82, 2.84, 3.78, 4.11, 3.98, 4.02, 4.02, 4.02, 3.98, 4.43, 4.43, 4.3, 4.3, 4.11, 4.11, 4.27, 4.0, 4.07, 4.11, 4.37, 2.82, 2.82, 1.4, 1.14, 1.99, 1.99, 2.16, 2.99, 1.84, 1.49, 2.4, 2.48, 4.11, 3.22, 1.14, -0.0, -0.96, -2.0, -2.84, -3.16, -3.48, -4.57, -4.92, -5.09, -4.11, -3.63, -3.79, -4.29, -4.92, -4.92, -4.92, -4.92, -4.92, -5.29, -5.36, -9.63, -9.63, -9.48, -9.1, -8.93, -8.65, -8.55, -8.55, -8.37, -8.0, -7.64, -7.9, -7.72, -7.35, -7.61, -7.23, -7.23, -7.48, -6.95, -6.8, -6.28, -6.0, -5.51, -4.34, -3.58, -2.6, -1.86, -0.57, -0.0, 0.65, 1.16, 1.61, 2.23, 2.53, 2.84, 3.09, 3.72, 3.72, 3.7, 3.87, 3.87, 4.44, 4.92, 6.26, 3.39, 3.35, 4.11, 3.98, 4.02, 4.02, 4.02, 3.98, 3.98, 4.3, 4.3, 4.3, 4.11, 4.11, 3.88, 4.0, 4.07, 4.11, 5.31, 3.55, 2.82, 1.4, 1.52, 2.2, 2.4, 3.22, 1.99, 1.73, 1.49, 1.27, 1.19, 1.84, 3.22, 2.16, -0.0, -1.66, -3.16, -3.58, -3.58, -3.93, -4.57, -4.92, -4.57, -4.11, -2.99, -2.76, -2.95, -4.34, -4.82, -4.82, -5.36, -4.92, -5.29, -5.29, -9.63, -9.63, -9.48, -9.1, -8.84, -8.65, -8.65, -8.29, -8.37, -8.0, -8.0, -8.0, -7.9, -7.72, -7.35, -7.35, -7.35, -7.61, -7.23, -6.95, -6.56, -6.28, -5.6, -5.09, -4.34, -3.13, -2.17, -1.26, -0.0, -0.0, 1.0, 1.61, 2.21, 2.53, 2.79, 3.14, 3.35, 3.35, 3.6, 3.82, 3.87, 3.87, 4.44, 4.92, 6.26, 3.98, 4.3, 3.98, 4.02, 4.02, 3.98, 3.98, 3.98, 3.87, 4.3, 4.11, 4.11, 3.72, 3.72, 4.0, 4.0, 4.11, 3.49, 4.37, 2.82, 2.66, 2.99, 3.22, 3.22, 3.22, 2.16, 0.96, 1.4, 2.12, 4.47, -0.0, 0.95, 1.03, -0.0, -1.8, -2.84, -3.16, -3.16, -3.58, -4.38, -4.92, -4.57, -4.11, -2.99, -2.99, -2.4, -3.35, -4.47, -4.77, -5.36, -5.36, -5.29, -5.29, -9.38, -9.38, -9.21, -9.21, -8.84, -8.65, -8.65, -8.65, -8.29, -8.08, -8.37, -8.0, -8.0, -7.9, -7.72, -7.35, -7.35, -7.35, -7.61, -7.23, -6.95, -6.56, -6.28, -5.6, -5.09, -3.87, -3.13, -1.79, -0.95, -0.0, 0.8, 1.24, 1.9, 2.5, 2.68, 3.07, 3.07, 3.2, 3.2, 3.39, 3.39, 3.39, 3.98, 3.98, 4.47, 6.26, 4.47, 4.02, 4.02, 4.02, 3.98, 3.98, 3.98, 3.87, 3.87, 3.7, 3.7, 3.72, 3.72, 3.43, 4.0, 4.07, 6.01, 5.69, 5.37, 5.37, 3.91, 3.47, 3.22, 1.99, 1.84, 1.03, 0.0, 1.73, 3.47, 2.4, -0.0, -0.0, -0.0, -1.41, -2.84, -3.16, -3.58, -4.0, -4.38, -4.92, -5.51, -4.54, -4.11, -3.22, -2.2, -2.84, -4.02, -4.34, -4.92, -5.36, -6.17, -6.17, -9.38, -9.38, -9.21, -9.21, -8.84, -8.65, -8.65, -8.65, -8.65, -8.08, -8.08, -8.0, -8.0, -7.64, -7.72, -7.72, -7.35, -7.35, -7.35, -7.35, -7.07, -6.7, -6.41, -5.86, -5.47, -4.4, -3.82, -2.6, -1.34, -0.0, -0.0, 1.2, 1.49, 2.0, 2.4, 2.91, 2.91, 3.07, 3.39, 3.39, 3.39, 3.53, 3.53, 3.53, 3.98, 4.02, 4.02, 4.02, 4.02, 3.98, 3.98, 3.98, 3.98, 3.87, 3.87, 3.7, 3.6, 3.72, 3.72, 3.72, 3.78, 4.0, 4.07, 6.01, 5.69, 5.37, 4.29, 4.74, 3.22, 1.84, 0.89, 0.0, 0.0, 1.98, 4.56, 6.36, 2.73, -0.0, -1.14, -2.2, -1.98, -2.84, -3.16, -4.0, -4.02, -5.26, -5.51, -4.98, -3.79, -3.22, -2.2, -2.23, -3.58, -4.34, -5.36, -5.73, -5.73, -5.73, -9.38, -9.38, -9.21, -9.21, -9.21, -8.65, -8.65, -8.38, -8.38, -8.44, -8.08, -8.08, -8.0, -8.0, -7.64, -7.44, -7.44, -7.44, -7.44, -7.35, -7.35, -7.07, -6.7, -6.15, -5.86, -5.21, -4.27, -3.2, -2.0, -1.34, 0.0, 0.45, 1.34, 1.79, 2.17, 2.6, 2.63, 2.91, 2.91, 3.07, 3.07, 3.07, 3.13, 3.58, 3.58, 3.58, 3.58, 4.02, 4.02, 3.98, 3.98, 3.98, 3.87, 3.82, 3.82, 3.6, 3.6, 3.72, 3.72, 3.72, 3.43, 3.78, 3.48, 5.69, 5.69, 5.69, 4.56, 4.29, 2.99, 1.98, 0.95, 0.0, 0.95, 1.98, 3.91, 4.89, 4.92, -0.0, -2.16, -2.4, -2.73, -2.84, -2.84, -4.0, -4.47, -4.57, -4.6, -4.29, -4.29, -3.48, -2.48, -1.27, -3.13, -4.47, -4.77, -5.26, -5.26, -5.26, -9.38, -9.38, -9.21, -9.21, -9.21, -8.65, -8.73, -8.38, -8.38, -8.15, -8.08, -8.08, -8.08, -8.0, -8.0, -7.64, -7.44, -7.44, -7.44, -7.44, -7.35, -7.15, -6.79, -6.23, -6.15, -5.49, -4.65, -4.0, -2.79, -1.86, -0.6, 0.0, 0.63, 1.34, 1.79, 2.24, 2.68, 2.63, 3.07, 3.07, 3.07, 3.13, 3.13, 3.13, 3.58, 3.58, 4.02, 4.02, 3.98, 3.53, 3.97, 3.97, 3.82, 3.82, 3.82, 3.6, 3.6, 3.35, 3.72, 3.72, 3.43, 3.43, 3.16, 3.48, 5.31, 4.14, 2.99, 2.82, 1.84, 0.95, 0.0, 0.89, 1.98, 2.8, 3.91, 4.19, 4.11, 2.68, -2.2, -3.49, -3.79, -3.58, -4.0, -4.38, -4.47, -4.38, -3.58, -3.22, -3.22, -3.16, -2.2, -1.4, -3.13, -4.02, -4.34, -4.98, -4.98, -4.98, -9.76, -9.76, -9.21, -9.21, -9.21, -9.01, -8.73, -8.73, -8.38, -8.15, -8.15, -8.08, -8.08, -7.73, -8.0, -8.0, -7.8, -7.44, -7.44, -7.44, -7.44, -6.87, -6.87, -6.79, -6.23, -5.65, -5.01, -4.11, -2.86, -2.23, -1.0, 0.0, 0.0, 0.6, 1.6, 2.12, 2.24, 2.68, 2.68, 2.68, 2.68, 2.68, 3.13, 3.13, 3.58, 4.02, 4.02, 3.98, 3.97, 3.53, 3.53, 3.39, 3.82, 3.82, 3.6, 3.6, 3.6, 3.35, 3.72, 3.43, 3.43, 3.43, 2.86, 3.48, 3.49, 3.8, 2.54, 1.96, 1.96, 0.89, 0.95, 2.12, 2.8, 2.8, 2.8, 3.0, 3.0, 2.2, -2.21, -3.22, -4.65, -4.98, -5.4, -4.38, -4.47, -4.47, -3.58, -2.95, -2.4, -2.4, -3.16, -1.6, -2.53, -4.02, -4.24, -4.8, -4.8, -4.8, -9.58, -9.58, -9.21, -9.21, -9.21, -9.21, -8.73, -8.73, -8.38, -8.15, -8.15, -7.81, -8.08, -8.08, -7.73, -8.0, -7.8, -7.44, -7.44, -7.17, -6.92, -7.21, -6.87, -6.87, -6.28, -5.69, -5.06, -4.43, -3.49, -2.48, -1.84, -0.53, 0.0, 0.71, 0.99, 1.86, 2.12, 2.17, 2.68, 2.68, 2.68, 2.68, 3.13, 3.13, 3.58, 3.58, 4.02, 3.98, 3.82, 3.39, 3.39, 3.39, 3.39, 3.39, 3.6, 3.6, 3.6, 3.35, 3.35, 3.43, 3.16, 3.16, 2.86, 3.48, 3.22, 3.8, 2.99, 2.82, 2.82, 3.0, 2.12, 2.8, 2.8, 1.98, 1.98, 3.0, 2.82, 3.0, 0.0, -4.24, -4.29, -5.37, -5.37, -4.57, -4.47, -4.47, -4.38, -3.93, -3.22, -1.6, -1.6, -2.84, -3.6, -3.82, -4.34, -4.4, -4.4, -4.4, -9.58, -9.58, -9.21, -9.21, -9.21, -9.21, -8.73, -8.73, -8.73, -8.15, -8.15, -8.15, -8.08, -8.08, -8.08, -7.73, -7.73, -7.51, -7.17, -7.17, -6.92, -6.92, -6.59, -6.32, -6.01, -6.01, -5.08, -4.75, -3.84, -2.84, -1.76, -1.13, 0.0, 0.0, 0.65, 1.24, 1.86, 1.86, 2.6, 2.6, 2.6, 2.6, 2.63, 3.09, 3.58, 3.58, 3.58, 3.53, 3.39, 3.39, 3.39, 3.39, 3.39, 3.2, 3.2, 3.6, 3.14, 3.14, 3.14, 3.16, 3.16, 2.86, 2.86, 3.15, 3.49, 5.31, 5.31, 5.69, 4.14, 2.82, 1.96, 1.84, 1.84, 1.84, 1.98, 3.0, 3.0, 2.82, 1.98, -1.8, -4.77, -4.89, -5.24, -4.8, -4.92, -4.47, -4.38, -4.0, -2.84, -2.53, -2.84, -2.84, -3.6, -3.82, -4.24, -4.4, -4.4, -4.4, -9.58, -9.58, -9.21, -9.21, -9.21, -9.21, -9.01, -8.73, -8.73, -8.73, -8.15, -8.15, -8.15, -8.08, -8.08, -8.08, -7.73, -7.51, -7.51, -7.17, -6.92, -6.92, -6.64, -6.32, -6.32, -5.71, -5.1, -4.75, -3.85, -3.04, -2.4, -1.57, -0.57, 0.0, 0.0, 0.65, 1.0, 1.58, 2.23, 2.4, 2.4, 2.4, 2.4, 2.91, 3.53, 3.58, 3.58, 3.53, 3.39, 3.2, 3.39, 3.39, 3.39, 3.07, 3.07, 3.14, 3.14, 3.14, 3.14, 2.84, 3.16, 2.86, 2.86, 2.86, 3.48, 4.58, 5.37, 5.24, 4.42, 2.82, 1.96, 0.0, 0.0, 0.95, 1.84, 3.0, 3.72, 3.97, 2.82, 0.0, -2.84, -5.4, -5.58, -6.0, -5.51, -4.92, -4.0, -3.58, -3.6, -2.98, -2.53, -2.48, -2.84, -3.6, -3.82, -4.0, -4.0, -4.0, -9.58, -9.58, -9.21, -9.21, -9.21, -9.01, -9.01, -8.73, -8.73, -8.73, -8.15, -8.15, -8.15, -7.81, -7.81, -8.08, -7.51, -7.51, -7.51, -7.17, -6.92, -6.64, -6.32, -6.32, -6.01, -5.71, -5.1, -4.47, -3.84, -3.45, -2.36, -1.7, -1.08, -0.57, 0.0, 0.0, 0.65, 1.2, 1.9, 1.9, 1.9, 2.23, 2.4, 2.91, 3.39, 3.53, 3.53, 3.53, 3.39, 3.07, 3.07, 3.07, 3.07, 3.07, 2.79, 2.79, 3.14, 3.14, 2.84, 2.84, 2.84, 2.86, 2.86, 2.86, 2.86, 4.74, 4.87, 5.24, 4.42, 3.77, 2.82, 1.01, 0.0, 0.0, 0.95, 3.0, 3.72, 3.97, 2.82, 1.96, 0.0, -4.24, -4.98, -4.98, -6.0, -4.02, -3.6, -3.58, -4.0, -3.9, -3.39, -2.53, -2.53, -2.84, -3.72, -3.72, -3.72, -3.72, -9.58, -9.21, -9.21, -9.21, -9.21, -9.01, -9.01, -8.73, -8.73, -8.45, -8.19, -8.15, -8.15, -8.15, -7.81, -7.81, -7.85, -7.51, -7.51, -7.51, -6.92, -6.92, -6.04, -5.72, -5.72, -5.1, -5.1, -4.73, -4.08, -3.21, -2.8, -2.36, -1.16, -0.55, 0.0, 0.0, 0.0, 0.65, 1.2, 1.61, 1.9, 1.9, 2.15, 2.68, 3.32, 3.53, 3.53, 3.39, 3.07, 3.07, 3.07, 3.07, 3.07, 2.79, 2.79, 3.14, 3.14, 2.84, 2.84, 2.51, 2.51, 2.23, 2.48, 2.86, 2.84, 2.86, 4.58, 5.37, 5.37, 5.37, 4.42, 3.55, 2.12, 2.16, 0.89, 2.8, 3.72, 2.82, 1.96, 1.01, 0.0, 0.0, -2.21, -1.99, -4.19, -4.38, -3.9, -3.6, -2.84, -3.35, -3.39, -3.39, -3.16, -3.72, -3.72, -4.09, -4.09, -4.09, -9.21, -9.21, -9.21, -9.21, -9.21, -9.01, -9.01, -8.73, -8.73, -8.45, -8.19, -7.86, -7.86, -8.15, -7.81, -7.81, -7.55, -7.51, -7.51, -7.51, -6.92, -6.64, -6.04, -5.72, -5.44, -5.1, -4.73, -4.73, -4.08, -3.42, -3.0, -2.32, -1.7, -1.19, -0.55, 0.0, 0.0, 0.61, 1.0, 1.2, 1.2, 1.61, 1.88, 2.5, 2.91, 3.07, 3.07, 3.32, 3.07, 3.07, 3.07, 3.07, 3.07, 2.79, 2.79, 3.14, 2.84, 2.84, 2.51, 2.51, 2.51, 2.51, 2.23, 2.23, 2.23, 2.23, 3.91, 5.06, 4.87, 4.42, 4.42, 4.87, 4.58, 5.24, 3.49, 3.91, 3.0, 1.96, 1.01, 1.01, 0.0, 0.0, 2.21, -2.12, -4.11, -4.38, -4.02, -3.9, -2.84, -3.35, -3.39, -3.39, -3.72, -3.48, -3.48, -3.48, -3.48, -3.48, -8.94, -8.94, -9.21, -9.21, -9.01, -9.01, -8.65, -8.73, -8.73, -8.45, -8.19, -8.19, -7.86, -7.86, -8.15, -7.55, -7.55, -7.23, -7.51, -7.25, -6.64, -6.64, -6.04, -5.72, -5.44, -5.1, -4.73, -4.73, -4.08, -3.42, -3.0, -2.32, -1.84, -1.07, -1.08, -0.57, 0.0, 0.0, 0.61, 1.16, 1.2, 1.2, 1.88, 2.21, 2.68, 3.07, 3.07, 2.91, 3.07, 2.79, 3.07, 3.07, 2.79, 2.79, 2.84, 2.84, 2.51, 2.51, 2.51, 2.23, 2.23, 2.23, 2.23, 2.23, 2.23, 2.23, 2.51, 2.48, 3.55, 3.77, 3.77, 3.77, 4.42, 5.37, 4.58, 4.74, 3.0, 1.84, 1.84, 1.84, 1.96, 2.16, -0.0, -2.12, -3.63, -4.15, -4.02, -3.9, -3.6, -3.35, -2.98, -2.98, -3.16, -2.73, -3.48, -2.48, -2.48, -2.48, -8.94, -8.94, -8.94, -9.21, -9.01, -9.01, -8.38, -8.73, -8.73, -8.73, -8.19, -8.19, -7.86, -7.86, -7.59, -7.55, -7.55, -7.55, -7.23, -7.25, -6.64, -6.64, -6.34, -5.72, -5.1, -5.1, -4.73, -4.47, -4.08, -3.42, -2.77, -2.32, -2.36, -1.7, -1.19, -0.55, 0.0, 0.0, 0.59, 0.51, 0.61, 1.16, 1.61, 2.53, 3.07, 2.91, 2.4, 2.4, 2.5, 2.53, 2.79, 2.79, 2.53, 2.23, 2.51, 2.51, 2.51, 2.51, 2.86, 2.48, 2.48, 2.23, 2.23, 1.8, 1.8, 1.8, 1.6, 1.8, 3.0, 3.77, 3.4, 3.4, 3.4, 3.6, 3.77, 2.82, 3.0, 3.0, 3.0, 3.72, 3.72, 4.19, -0.0, -3.0, -3.91, -4.8, -4.47, -4.47, -3.9, -3.35, -2.98, -2.98, -3.16, -2.48, -2.48, -2.23, -2.23, -2.23, -8.94, -8.94, -8.94, -8.73, -8.73, -8.73, -8.38, -8.73, -8.73, -8.73, -8.19, -8.19, -7.86, -7.86, -7.59, -7.55, -7.55, -7.55, -7.23, -6.95, -6.64, -6.64, -6.34, -5.72, -5.1, -5.1, -4.46, -4.08, -4.08, -3.42, -2.77, -2.8, -2.16, -1.7, -1.16, -1.19, -0.55, 0.0, 0.0, 0.59, 0.59, 0.51, 1.16, 1.88, 2.53, 2.68, 2.5, 2.15, 2.5, 2.21, 2.53, 2.53, 2.23, 2.23, 2.51, 2.51, 2.51, 2.51, 2.48, 2.86, 2.22, 2.22, 2.48, 1.8, 1.8, 1.8, 1.8, 1.27, 1.76, 2.67, 2.83, 2.67, 3.4, 3.4, 2.83, 1.84, 1.01, 1.84, 3.0, 4.58, 5.49, 5.24, 3.58, -1.99, -3.91, -4.65, -3.9, -3.58, -3.58, -3.39, -2.98, -2.98, -2.53, -2.48, -2.48, -2.48, -2.48, -2.48, -8.94, -8.94, -8.94, -8.73, -8.73, -8.73, -8.73, -8.73, -8.73, -8.73, -8.19, -8.19, -7.86, -7.59, -7.59, -7.27, -7.55, -7.55, -7.23, -6.95, -6.64, -6.34, -6.34, -5.72, -5.1, -5.1, -4.46, -4.32, -4.08, -3.42, -2.77, -3.0, -2.32, -1.67, -1.7, -1.07, -0.55, 0.0, 0.0, 0.0, 0.0, 0.59, 1.13, 1.88, 2.21, 2.21, 2.5, 2.5, 2.5, 2.21, 2.53, 2.23, 2.23, 2.23, 2.23, 2.51, 2.51, 2.51, 2.23, 2.48, 2.44, 2.44, 2.44, 1.76, 1.76, 1.76, 1.58, 1.11, 1.08, 1.73, 2.67, 3.77, 3.77, 3.77, 2.99, 2.82, 1.84, 1.84, 3.0, 4.74, 5.49, 5.37, 5.4, -0.0, -2.8, -3.91, -3.58, -3.9, -4.02, -3.47, -2.98, -2.98, -3.35, -2.48, -2.48, -2.48, -2.48, -2.48, -8.94, -8.94, -8.94, -8.73, -8.73, -8.73, -8.73, -8.73, -8.73, -8.73, -8.19, -8.19, -7.86, -7.59, -7.59, -7.59, -7.27, -7.55, -6.95, -6.95, -6.64, -6.34, -6.04, -5.72, -5.1, -5.1, -4.46, -4.05, -4.08, -3.42, -2.96, -2.77, -2.32, -1.8, -1.67, -1.16, -0.54, 0.0, 0.0, 0.0, 0.0, 0.0, 0.59, 1.16, 1.61, 1.61, 2.21, 2.21, 2.21, 1.88, 1.88, 2.23, 2.51, 1.84, 1.84, 1.84, 1.6, 2.07, 2.23, 2.23, 2.22, 2.44, 2.2, 1.94, 1.76, 1.76, 1.23, 1.23, 1.08, 1.84, 3.77, 4.42, 4.42, 3.77, 3.55, 2.82, 3.72, 3.91, 3.22, 4.74, 4.58, 4.42, 5.37, 2.48, -1.03, -3.22, -4.29, -3.9, -3.58, -3.58, -3.39, -2.98, -2.84, -2.73, -2.48, -3.16, -3.16, -3.16, -8.94, -8.94, -8.73, -8.73, -8.73, -8.73, -8.73, -8.73, -8.73, -8.73, -8.19, -8.19, -8.19, -7.59, -7.59, -7.59, -7.27, -7.27, -6.95, -6.95, -6.64, -6.34, -6.32, -6.01, -5.1, -4.71, -4.46, -4.05, -3.83, -3.64, -2.96, -2.77, -2.29, -1.8, -1.67, -1.05, -0.59, 0.0, 0.0, 0.0, 0.0, 0.0, 0.57, 1.16, 1.2, 1.2, 1.61, 1.88, 1.88, 1.61, 1.88, 1.84, 1.8, 1.8, 1.8, 1.8, 1.8, 1.8, 1.8, 1.8, 2.0, 1.76, 1.73, 1.73, 1.73, 1.23, 1.23, 1.23, 0.63, 1.08, 1.7, 2.67, 3.4, 3.77, 3.77, 3.77, 3.97, 3.72, 3.72, 3.72, 3.55, 3.77, 4.89, 3.72, -1.03, -2.8, -3.49, -3.6, -3.58, -3.13, -3.39, -2.98, -2.84, -2.48, -2.48, -2.84, -2.84, -2.84, -8.94, -8.94, -8.73, -8.73, -8.73, -8.73, -8.73, -8.73, -8.73, -8.73, -8.19, -8.19, -8.19, -7.86, -7.59, -7.27, -7.27, -6.97, -6.95, -6.95, -6.34, -6.34, -6.32, -6.01, -5.38, -4.46, -4.46, -4.05, -3.83, -3.4, -2.96, -2.96, -2.29, -1.65, -1.8, -1.14, -1.16, -0.61, -0.55, 0.0, 0.0, 0.0, 0.57, 1.33, 1.16, 1.4, 1.61, 1.2, 1.16, 1.61, 1.88, 1.84, 1.8, 1.8, 1.8, 1.8, 2.48, 2.48, 2.23, 1.8, 1.8, 1.76, 1.57, 1.73, 1.19, 1.08, 1.08, 0.55, 0.63, 0.63, 0.61, 0.89, 2.82, 3.8, 2.82, 2.99, 2.82, 3.55, 3.55, 2.82, 2.82, 3.77, 4.74, 4.34, -0.0, -2.8, -4.11, -4.4, -3.9, -3.58, -3.58, -3.47, -3.35, -1.98, -1.98, -2.21, -2.21, -2.21, -8.94, -8.94, -8.73, -8.73, -8.73, -8.73, -8.73, -8.73, -8.73, -8.73, -8.19, -8.19, -7.86, -7.59, -7.59, -7.27, -6.97, -6.67, -6.95, -6.34, -6.34, -6.04, -5.72, -5.71, -5.38, -4.73, -4.73, -3.83, -3.83, -3.64, -3.42, -2.96, -2.29, -2.14, -1.8, -1.67, -1.16, -1.07, -0.55, -0.55, -0.55, 0.0, 0.0, 0.61, 1.16, 1.16, 1.2, 1.2, 0.53, 1.16, 1.16, 1.33, 1.27, 1.58, 1.76, 2.48, 2.48, 2.48, 2.48, 1.8, 1.8, 1.23, 1.23, 1.08, 1.08, 1.08, 0.55, 0.55, 0.63, 0.0, 0.0, 0.54, 1.16, 1.4, 1.73, 1.73, 1.73, 2.82, 2.82, 2.82, 2.99, 3.77, 4.58, 4.92, 1.19, -2.16, -4.11, -4.29, -4.4, -4.92, -4.92, -4.92, -4.02, -3.39, -2.21, -2.53, -2.53, -2.53, -8.94, -8.94, -8.73, -8.73, -8.73, -8.73, -8.73, -8.73, -8.73, -8.73, -8.19, -8.19, -7.86, -7.59, -7.59, -7.27, -6.97, -6.67, -6.95, -6.34, -6.34, -6.04, -5.72, -5.71, -5.38, -4.73, -4.73, -3.83, -3.83, -3.64, -3.42, -2.96, -2.29, -2.14, -1.8, -1.67, -1.16, -1.07, -0.55, -0.55, -0.55, 0.0, 0.0, 0.61, 1.16, 1.16, 1.2, 1.2, 0.53, 1.16, 1.16, 1.33, 1.27, 1.58, 1.76, 2.48, 2.48, 2.48, 2.48, 1.8, 1.8, 1.23, 1.23, 1.08, 1.08, 1.08, 0.55, 0.55, 0.63, 0.0, 0.0, 0.54, 1.16, 1.4, 1.73, 1.73, 1.96, 2.82, 2.82, 2.82, 2.99, 3.77, 4.87, 5.4, 3.72, -0.0, -2.99, -4.11, -4.29, -4.77, -4.77, -4.82, -4.92, -4.47, -4.02, -3.82, -3.82, -3.82]}]